G1OCN-WX Weather Reports


Display with metric or nautical units.
time (UTC)temp
F
wind
direction
speed
MPH
gust
MPH
rain 1hr
in
rain 24hr
in
rain mn
in
humidity
%
barometer
mb
20260510104427 57 47 17.0 20.0 0.00 0.00 0.00 61 1015.7
20260510104257 57 66 16.0 21.0 0.00 0.00 0.00 63 1015.7
20260510104127 56 58 17.0 22.0 0.00 0.00 0.00 62 1015.7
20260510103957 56 62 17.0 22.0 0.00 0.00 0.00 62 1015.7
20260510103857 56 52 15.0 22.0 0.00 0.00 0.00 63 1015.8
20260510103727 56 64 16.0 24.0 0.00 0.00 0.00 63 1015.8
20260510103627 56 59 18.0 22.0 0.00 0.00 0.00 62 1015.8
20260510103527 56 58 17.0 25.0 0.00 0.00 0.00 63 1015.8
20260510103427 56 55 16.0 18.0 0.00 0.00 0.00 62 1015.8
20260510103257 56 49 15.0 22.0 0.00 0.00 0.00 63 1015.8
20260510103157 56 47 15.0 20.0 0.00 0.00 0.00 63 1015.8
20260510103057 56 52 17.0 18.0 0.00 0.00 0.00 62 1015.7
20260510102957 56 63 18.0 25.0 0.00 0.00 0.00 63 1015.7
20260510102857 56 67 17.0 23.0 0.00 0.00 0.00 63 1015.8
20260510102727 56 60 18.0 26.0 0.00 0.00 0.00 62 1015.8
20260510102557 56 60 18.0 23.0 0.00 0.00 0.00 62 1015.8
20260510102427 56 66 18.0 26.0 0.00 0.00 0.00 63 1015.7
20260510102327 56 65 16.0 26.0 0.00 0.00 0.00 64 1015.7
20260510102227 56 67 17.0 23.0 0.00 0.00 0.00 63 1015.7
20260510102057 56 58 14.0 26.0 0.00 0.00 0.00 64 1015.7
20260510101957 56 60 16.0 16.0 0.00 0.00 0.00 63 1015.7
20260510101857 56 61 17.0 26.0 0.00 0.00 0.00 64 1015.7
20260510101727 56 54 15.0 22.0 0.00 0.00 0.00 65 1015.7
20260510101627 56 53 14.0 17.0 0.00 0.00 0.00 65 1015.7
20260510101527 56 48 15.0 17.0 0.00 0.00 0.00 65 1015.7
20260510101427 55 54 15.0 23.0 0.00 0.00 0.00 66 1015.7
20260510101327 55 50 16.0 21.0 0.00 0.00 0.00 65 1015.7
20260510101157 55 54 21.0 24.0 0.00 0.00 0.00 65 1015.7
20260510101027 55 57 20.0 26.0 0.00 0.00 0.00 66 1015.7
20260510100927 55 57 17.0 25.0 0.00 0.00 0.00 66 1015.7
20260510100827 55 63 16.0 26.0 0.00 0.00 0.00 66 1015.7
20260510100727 55 65 21.0 23.0 0.00 0.00 0.00 66 1015.7
20260510100557 55 59 16.0 18.0 0.00 0.00 0.00 67 1015.7
20260510100457 55 58 20.0 25.0 0.00 0.00 0.00 67 1015.8
20260510100327 55 55 21.0 24.0 0.00 0.00 0.00 67 1015.8
20260510100227 55 62 18.0 29.0 0.00 0.00 0.00 67 1015.8
20260510100057 55 58 17.0 22.0 0.00 0.00 0.00 68 1015.8
20260510095957 55 47 16.0 20.0 0.00 0.00 0.00 67 1015.8
20260510095857 55 56 18.0 24.0 0.00 0.00 0.00 67 1015.8
20260510095757 55 59 17.0 25.0 0.00 0.00 0.00 67 1015.8
20260510095627 55 49 20.0 24.0 0.00 0.00 0.00 67 1015.8
20260510095527 55 52 22.0 26.0 0.00 0.00 0.00 66 1015.9
20260510095357 55 53 20.0 28.0 0.00 0.00 0.00 66 1015.9
20260510095257 55 56 21.0 24.0 0.00 0.00 0.00 66 1015.9
20260510095157 55 49 18.0 24.0 0.00 0.00 0.00 66 1015.9
20260510095057 55 54 18.0 21.0 0.00 0.00 0.00 66 1015.9
20260510094957 55 60 20.0 24.0 0.00 0.00 0.00 66 1015.9
20260510094857 55 60 20.0 26.0 0.00 0.00 0.00 67 1015.9
20260510094757 55 52 14.0 24.0 0.00 0.00 0.00 67 1015.9
20260510094657 55 53 17.0 24.0 0.00 0.00 0.00 66 1015.9
20260510094527 55 52 16.0 20.0 0.00 0.00 0.00 66 1015.8
20260510094357 55 58 17.0 20.0 0.00 0.00 0.00 67 1015.9
20260510094257 55 57 18.0 22.0 0.00 0.00 0.00 66 1016.0
20260510094157 55 52 18.0 23.0 0.00 0.00 0.00 66 1016.0
20260510094057 55 55 17.0 24.0 0.00 0.00 0.00 66 1016.0
20260510093957 55 55 17.0 22.0 0.00 0.00 0.00 66 1015.9
20260510093827 55 58 20.0 25.0 0.00 0.00 0.00 66 1016.0
20260510093727 55 52 18.0 25.0 0.00 0.00 0.00 67 1016.0
20260510093627 55 61 15.0 20.0 0.00 0.00 0.00 68 1016.0
20260510093527 54 58 16.0 20.0 0.00 0.00 0.00 67 1016.0
20260510093427 54 55 18.0 24.0 0.00 0.00 0.00 67 1016.0
20260510093326 54 48 17.0 24.0 0.00 0.00 0.00 67 1016.0
20260510093227 54 55 20.0 24.0 0.00 0.00 0.00 67 1016.0
20260510093126 54 56 17.0 26.0 0.00 0.00 0.00 68 1016.0
20260510092956 54 55 16.0 21.0 0.00 0.00 0.00 67 1015.9
20260510092856 54 56 17.0 20.0 0.00 0.00 0.00 67 1015.9
20260510092756 54 54 18.0 22.0 0.00 0.00 0.00 67 1016.0
20260510092656 54 57 18.0 24.0 0.00 0.00 0.00 67 1016.0
20260510092556 54 58 16.0 24.0 0.00 0.00 0.00 68 1015.9
20260510092456 54 65 16.0 23.0 0.00 0.00 0.00 68 1015.9
20260510092356 54 58 15.0 20.0 0.00 0.00 0.00 68 1016.0
20260510092256 54 58 15.0 17.0 0.00 0.00 0.00 68 1016.0
20260510092156 54 53 15.0 20.0 0.00 0.00 0.00 69 1016.0
20260510092056 54 57 16.0 17.0 0.00 0.00 0.00 68 1016.0
20260510091956 54 59 18.0 26.0 0.00 0.00 0.00 68 1016.0
20260510091856 54 59 18.0 26.0 0.00 0.00 0.00 68 1016.0
20260510091756 54 56 22.0 24.0 0.00 0.00 0.00 68 1016.0
20260510091656 54 54 20.0 26.0 0.00 0.00 0.00 68 1016.0
20260510091556 54 58 21.0 24.0 0.00 0.00 0.00 69 1016.0
20260510091456 54 53 21.0 26.0 0.00 0.00 0.00 68 1016.0
20260510091356 54 52 20.0 26.0 0.00 0.00 0.00 68 1016.1
20260510091255 54 54 20.0 28.0 0.00 0.00 0.00 68 1016.0
20260510091155 54 45 18.0 25.0 0.00 0.00 0.00 69 1016.1
20260510091055 54 61 16.0 23.0 0.00 0.00 0.00 69 1016.1
20260510090955 54 52 16.0 20.0 0.00 0.00 0.00 69 1016.1
20260510090855 54 51 17.0 20.0 0.00 0.00 0.00 69 1016.1
20260510090755 53 54 17.0 20.0 0.00 0.00 0.00 68 1016.1
20260510090655 53 53 18.0 23.0 0.00 0.00 0.00 68 1016.0
20260510090555 53 56 17.0 21.0 0.00 0.00 0.00 69 1016.1
20260510090455 53 52 16.0 21.0 0.00 0.00 0.00 69 1016.0
20260510090355 53 63 17.0 20.0 0.00 0.00 0.00 69 1016.0
20260510090255 53 56 20.0 25.0 0.00 0.00 0.00 68 1016.1
20260510090155 53 64 16.0 22.0 0.00 0.00 0.00 69 1016.1
20260510090055 53 58 18.0 24.0 0.00 0.00 0.00 68 1016.1
20260510085955 53 54 17.0 24.0 0.00 0.00 0.00 69 1016.1
20260510085855 53 57 17.0 21.0 0.00 0.00 0.00 69 1016.1
20260510085754 53 58 16.0 23.0 0.00 0.00 0.00 69 1016.1
20260510085654 53 49 18.0 23.0 0.00 0.00 0.00 69 1016.1
20260510085554 53 53 14.0 25.0 0.00 0.00 0.00 69 1016.1
20260510085454 53 56 17.0 17.0 0.00 0.00 0.00 69 1016.1
20260510085354 53 50 20.0 28.0 0.00 0.00 0.00 69 1016.1
20260510085254 53 58 18.0 22.0 0.00 0.00 0.00 68 1016.1
20260510085154 53 51 16.0 26.0 0.00 0.00 0.00 69 1016.1
20260510085054 53 60 17.0 21.0 0.00 0.00 0.00 68 1016.2
20260510084954 53 57 17.0 26.0 0.00 0.00 0.00 69 1016.2
20260510084854 53 57 15.0 23.0 0.00 0.00 0.00 69 1016.1
20260510084754 53 59 17.0 18.0 0.00 0.00 0.00 69 1016.2
20260510084654 53 63 20.0 25.0 0.00 0.00 0.00 68 1016.2
20260510084554 53 60 21.0 26.0 0.00 0.00 0.00 68 1016.1
20260510084453 53 61 20.0 29.0 0.00 0.00 0.00 69 1016.1
20260510084354 53 58 16.0 24.0 0.00 0.00 0.00 69 1016.1
20260510084253 53 62 16.0 23.0 0.00 0.00 0.00 68 1016.1
20260510084153 53 60 17.0 26.0 0.00 0.00 0.00 69 1016.1
20260510084053 53 66 17.0 24.0 0.00 0.00 0.00 69 1016.1
20260510083953 53 64 16.0 20.0 0.00 0.00 0.00 68 1016.1
20260510083853 53 66 17.0 24.0 0.00 0.00 0.00 69 1016.1
20260510083753 53 64 18.0 24.0 0.00 0.00 0.00 69 1016.1
20260510083653 53 65 16.0 24.0 0.00 0.00 0.00 70 1016.1
20260510083553 53 64 17.0 21.0 0.00 0.00 0.00 69 1016.1
20260510083453 53 55 16.0 23.0 0.00 0.00 0.00 70 1016.1
20260510083353 53 61 14.0 20.0 0.00 0.00 0.00 70 1016.1
20260510083253 53 54 14.0 18.0 0.00 0.00 0.00 70 1016.2
20260510083153 53 55 13.0 16.0 0.00 0.00 0.00 70 1016.1
20260510083053 53 59 16.0 18.0 0.00 0.00 0.00 69 1016.2
20260510082952 53 62 14.0 21.0 0.00 0.00 0.00 70 1016.2
20260510082852 53 54 13.0 17.0 0.00 0.00 0.00 70 1016.2
20260510082752 53 53 15.0 18.0 0.00 0.00 0.00 70 1016.2
20260510082652 53 54 15.0 20.0 0.00 0.00 0.00 70 1016.2
20260510082552 53 57 14.0 17.0 0.00 0.00 0.00 69 1016.2
20260510082452 53 56 15.0 22.0 0.00 0.00 0.00 69 1016.2
20260510082352 53 53 14.0 20.0 0.00 0.00 0.00 69 1016.2
20260510082252 53 52 17.0 20.0 0.00 0.00 0.00 68 1016.2
20260510082152 53 60 20.0 25.0 0.00 0.00 0.00 68 1016.2
20260510082052 53 62 16.0 26.0 0.00 0.00 0.00 69 1016.2
20260510081952 53 60 16.0 20.0 0.00 0.00 0.00 69 1016.2
20260510081852 53 55 17.0 20.0 0.00 0.00 0.00 69 1016.2
20260510081752 53 62 17.0 25.0 0.00 0.00 0.00 69 1016.1
20260510081652 53 65 17.0 20.0 0.00 0.00 0.00 69 1016.2
20260510081552 53 67 18.0 23.0 0.00 0.00 0.00 68 1016.2
20260510081452 53 66 16.0 22.0 0.00 0.00 0.00 68 1016.2
20260510081351 53 64 15.0 21.0 0.00 0.00 0.00 68 1016.2
20260510081251 53 65 17.0 21.0 0.00 0.00 0.00 68 1016.2
20260510081151 53 60 18.0 25.0 0.00 0.00 0.00 68 1016.2
20260510081051 53 65 15.0 23.0 0.00 0.00 0.00 69 1016.2
20260510080951 53 63 17.0 22.0 0.00 0.00 0.00 68 1016.2
20260510080851 53 66 18.0 25.0 0.00 0.00 0.00 69 1016.2
20260510080751 53 64 15.0 28.0 0.00 0.00 0.00 69 1016.1
20260510080651 53 56 14.0 17.0 0.00 0.00 0.00 69 1016.1
20260510080551 53 58 17.0 22.0 0.00 0.00 0.00 68 1016.1
20260510080451 53 70 17.0 22.0 0.00 0.00 0.00 68 1016.1
20260510080351 53 65 18.0 24.0 0.00 0.00 0.00 68 1016.1
20260510080251 53 58 16.0 24.0 0.00 0.00 0.00 68 1016.1
20260510080151 53 64 17.0 28.0 0.00 0.00 0.00 68 1016.0
20260510080051 53 61 17.0 26.0 0.00 0.00 0.00 68 1016.1
20260510075951 53 65 20.0 22.0 0.00 0.00 0.00 68 1016.1
20260510075851 53 67 20.0 28.0 0.00 0.00 0.00 68 1016.1
20260510075750 53 60 21.0 26.0 0.00 0.00 0.00 69 1016.1
20260510075620 53 63 20.0 26.0 0.00 0.00 0.00 69 1016.1
20260510075520 53 67 18.0 26.0 0.00 0.00 0.00 69 1016.1
20260510075420 53 66 18.0 26.0 0.00 0.00 0.00 69 1016.1
20260510075320 53 56 16.0 24.0 0.00 0.00 0.00 69 1016.1
20260510075150 53 65 17.0 25.0 0.00 0.00 0.00 69 1016.1
20260510075050 53 63 17.0 25.0 0.00 0.00 0.00 70 1016.1
20260510074950 53 67 14.0 21.0 0.00 0.00 0.00 70 1016.1
20260510074850 53 57 17.0 21.0 0.00 0.00 0.00 70 1016.1
20260510074750 53 67 22.0 26.0 0.00 0.00 0.00 70 1016.2
20260510074650 53 65 20.0 26.0 0.00 0.00 0.00 70 1016.2
20260510074520 53 74 16.0 26.0 0.00 0.00 0.00 70 1016.1
20260510074420 53 61 16.0 20.0 0.00 0.00 0.00 70 1016.2
20260510074320 53 63 20.0 29.0 0.00 0.00 0.00 70 1016.2
20260510074220 53 65 16.0 26.0 0.00 0.00 0.00 71 1016.1
20260510074120 53 64 14.0 20.0 0.00 0.00 0.00 72 1016.1
20260510074020 53 58 15.0 16.0 0.00 0.00 0.00 72 1016.1
20260510073920 53 54 16.0 21.0 0.00 0.00 0.00 72 1016.1
20260510073820 53 60 15.0 24.0 0.00 0.00 0.00 73 1016.1
20260510073720 52 61 13.0 20.0 0.00 0.00 0.00 73 1016.1
20260510073620 52 66 16.0 21.0 0.00 0.00 0.00 72 1016.1
20260510073520 52 63 17.0 22.0 0.00 0.00 0.00 73 1016.1
20260510073420 52 52 14.0 20.0 0.00 0.00 0.00 74 1016.1
20260510073319 52 65 15.0 20.0 0.00 0.00 0.00 74 1016.1
20260510073219 52 66 17.0 20.0 0.00 0.00 0.00 74 1016.1
20260510073119 51 67 17.0 23.0 0.00 0.00 0.00 74 1016.1
20260510073019 51 64 17.0 22.0 0.00 0.00 0.00 74 1016.2
20260510072919 51 61 15.0 21.0 0.00 0.00 0.00 74 1016.1
20260510072819 51 68 13.0 20.0 0.00 0.00 0.00 75 1016.2
20260510072719 51 60 15.0 18.0 0.00 0.00 0.00 74 1016.2
20260510072619 51 68 16.0 18.0 0.00 0.00 0.00 74 1016.2
20260510072519 51 60 18.0 26.0 0.00 0.00 0.00 74 1016.2
20260510072349 51 63 20.0 26.0 0.00 0.00 0.00 74 1016.2
20260510072249 51 60 16.0 23.0 0.00 0.00 0.00 74 1016.1
20260510072149 51 63 16.0 22.0 0.00 0.00 0.00 74 1016.1
20260510072049 51 59 17.0 22.0 0.00 0.00 0.00 74 1016.1
20260510071948 51 60 16.0 26.0 0.00 0.00 0.00 75 1016.1
20260510071848 51 52 17.0 18.0 0.00 0.00 0.00 75 1016.1
20260510071748 51 57 18.0 25.0 0.00 0.00 0.00 75 1016.1
20260510071648 51 58 15.0 22.0 0.00 0.00 0.00 75 1016.1
20260510071548 51 60 16.0 23.0 0.00 0.00 0.00 75 1016.1
20260510071448 51 63 16.0 21.0 0.00 0.00 0.00 75 1016.1
20260510071348 51 64 17.0 22.0 0.00 0.00 0.00 75 1016.1
20260510071248 51 65 16.0 22.0 0.00 0.00 0.00 75 1016.1
20260510071148 51 58 16.0 20.0 0.00 0.00 0.00 75 1016.2
20260510071048 51 56 17.0 23.0 0.00 0.00 0.00 75 1016.1
20260510070948 51 56 17.0 24.0 0.00 0.00 0.00 75 1016.1
20260510070848 51 52 17.0 23.0 0.00 0.00 0.00 76 1016.0
20260510070748 51 57 15.0 23.0 0.00 0.00 0.00 76 1016.0
20260510070648 51 61 16.0 20.0 0.00 0.00 0.00 76 1016.1
20260510070547 51 57 15.0 21.0 0.00 0.00 0.00 76 1016.1
20260510070447 51 60 14.0 20.0 0.00 0.00 0.00 77 1016.1
20260510070347 51 60 14.0 20.0 0.00 0.00 0.00 77 1016.1
20260510070247 50 63 15.0 20.0 0.00 0.00 0.00 77 1016.1
20260510070147 50 56 16.0 20.0 0.00 0.00 0.00 77 1016.1
20260510070047 50 68 17.0 24.0 0.00 0.00 0.00 77 1016.1
20260510065947 50 62 17.0 21.0 0.00 0.00 0.00 77 1016.0
20260510065847 50 63 20.0 24.0 0.00 0.00 0.00 77 1016.1
20260510065747 50 55 17.0 24.0 0.00 0.00 0.00 77 1016.1
20260510065647 50 58 16.0 26.0 0.00 0.00 0.00 77 1016.0
20260510065547 50 61 18.0 26.0 0.00 0.00 0.00 78 1016.0
20260510065447 50 56 16.0 23.0 0.00 0.00 0.00 78 1016.0
20260510065347 50 59 14.0 21.0 0.00 0.00 0.00 78 1016.0
20260510065247 50 52 12.0 16.0 0.00 0.00 0.00 78 1016.0
20260510065146 50 59 16.0 21.0 0.00 0.00 0.00 78 1016.0
20260510065046 50 59 15.0 25.0 0.00 0.00 0.00 78 1016.0
20260510064946 50 63 18.0 24.0 0.00 0.00 0.00 78 1016.0
20260510064846 50 56 16.0 25.0 0.00 0.00 0.00 78 1015.9
20260510064746 50 58 18.0 22.0 0.00 0.00 0.00 78 1016.0
20260510064646 50 58 15.0 25.0 0.00 0.00 0.00 79 1015.9
20260510064546 49 51 17.0 25.0 0.00 0.00 0.00 78 1015.9
20260510064446 49 62 16.0 25.0 0.00 0.00 0.00 79 1015.9
20260510064346 49 57 17.0 18.0 0.00 0.00 0.00 79 1015.9
20260510064246 49 65 20.0 28.0 0.00 0.00 0.00 78 1015.9
20260510064146 49 62 18.0 26.0 0.00 0.00 0.00 79 1015.9
20260510064045 49 58 17.0 28.0 0.00 0.00 0.00 79 1015.9
20260510063915 49 61 16.0 23.0 0.00 0.00 0.00 79 1015.9
20260510063815 49 53 18.0 21.0 0.00 0.00 0.00 79 1015.9
20260510063716 49 65 20.0 26.0 0.00 0.00 0.00 79 1015.9
20260510063615 49 56 18.0 26.0 0.00 0.00 0.00 80 1016.0
20260510063515 49 58 16.0 22.0 0.00 0.00 0.00 80 1015.9
20260510063415 49 58 16.0 22.0 0.00 0.00 0.00 80 1015.9
20260510063315 49 55 20.0 21.0 0.00 0.00 0.00 79 1015.9
20260510063215 49 52 20.0 28.0 0.00 0.00 0.00 80 1015.9
20260510063115 49 58 17.0 23.0 0.00 0.00 0.00 80 1015.9
20260510063015 49 53 17.0 23.0 0.00 0.00 0.00 80 1015.9
20260510062915 49 58 18.0 24.0 0.00 0.00 0.00 80 1015.9
20260510062815 49 59 16.0 20.0 0.00 0.00 0.00 80 1015.8
20260510062715 49 60 16.0 21.0 0.00 0.00 0.00 80 1015.9
20260510062614 48 55 18.0 24.0 0.00 0.00 0.00 80 1015.9
20260510062514 48 60 18.0 25.0 0.00 0.00 0.00 80 1015.8
20260510062414 48 56 20.0 24.0 0.00 0.00 0.00 80 1015.8
20260510062314 48 56 20.0 26.0 0.00 0.00 0.00 80 1015.8
20260510062214 48 58 18.0 23.0 0.00 0.00 0.00 80 1015.7
20260510062114 48 59 17.0 23.0 0.00 0.00 0.00 80 1015.7
20260510062014 48 50 17.0 25.0 0.00 0.00 0.00 80 1015.8
20260510061914 48 59 18.0 21.0 0.00 0.00 0.00 80 1015.7
20260510061814 48 60 18.0 25.0 0.00 0.00 0.00 81 1015.7
20260510061714 48 54 17.0 22.0 0.00 0.00 0.00 81 1015.7
20260510061614 48 51 15.0 21.0 0.00 0.00 0.00 81 1015.7
20260510061514 48 56 20.0 26.0 0.00 0.00 0.00 81 1015.7
20260510061414 48 56 18.0 25.0 0.00 0.00 0.00 81 1015.6
20260510061314 48 52 18.0 25.0 0.00 0.00 0.00 81 1015.7
20260510061213 48 58 20.0 26.0 0.00 0.00 0.00 81 1015.7
20260510061113 48 53 17.0 24.0 0.00 0.00 0.00 81 1015.7
20260510061013 48 58 18.0 24.0 0.00 0.00 0.00 81 1015.7
20260510060913 48 61 20.0 26.0 0.00 0.00 0.00 81 1015.7
20260510060813 48 55 18.0 24.0 0.00 0.00 0.00 81 1015.7
20260510060713 48 62 22.0 26.0 0.00 0.00 0.00 81 1015.7
20260510060613 48 58 20.0 26.0 0.00 0.00 0.00 81 1015.7
20260510060513 48 62 17.0 21.0 0.00 0.00 0.00 81 1015.7
20260510060413 48 54 17.0 21.0 0.00 0.00 0.00 81 1015.7
20260510060313 48 61 20.0 23.0 0.00 0.00 0.00 81 1015.8
20260510060213 48 55 20.0 29.0 0.00 0.00 0.00 81 1015.8
20260510060113 48 56 18.0 21.0 0.00 0.00 0.00 81 1015.8
20260510060013 48 58 18.0 25.0 0.00 0.00 0.00 81 1015.7
20260510055913 48 57 16.0 23.0 0.00 0.00 0.00 81 1015.7
20260510055813 48 60 17.0 23.0 0.00 0.00 0.00 81 1015.7
20260510055713 48 60 17.0 21.0 0.00 0.00 0.00 81 1015.7
20260510055612 48 60 17.0 25.0 0.00 0.00 0.00 81 1015.7
20260510055512 48 56 20.0 25.0 0.00 0.00 0.00 81 1015.7
20260510055412 48 58 18.0 25.0 0.00 0.00 0.00 81 1015.7
20260510055312 48 60 17.0 21.0 0.00 0.00 0.00 81 1015.7
20260510055212 48 55 18.0 22.0 0.00 0.00 0.00 80 1015.7
20260510055112 48 62 17.0 24.0 0.00 0.00 0.00 81 1015.7
20260510055012 48 53 20.0 23.0 0.00 0.00 0.00 81 1015.7
20260510054912 48 56 22.0 28.0 0.00 0.00 0.00 80 1015.7
20260510054812 48 56 20.0 30.0 0.00 0.00 0.00 80 1015.7
20260510054712 48 56 20.0 26.0 0.00 0.00 0.00 80 1015.6
20260510054612 48 56 18.0 25.0 0.00 0.00 0.00 80 1015.6
20260510054512 48 54 21.0 29.0 0.00 0.00 0.00 80 1015.6
20260510054411 48 55 20.0 29.0 0.00 0.00 0.00 81 1015.6
20260510054311 48 60 20.0 25.0 0.00 0.00 0.00 80 1015.6
20260510054211 48 60 23.0 26.0 0.00 0.00 0.00 80 1015.6
20260510054111 48 56 21.0 29.0 0.00 0.00 0.00 80 1015.6
20260510054011 48 54 18.0 26.0 0.00 0.00 0.00 80 1015.6
20260510053911 48 45 17.0 26.0 0.00 0.00 0.00 80 1015.6
20260510053811 48 56 20.0 23.0 0.00 0.00 0.00 80 1015.6
20260510053711 48 53 20.0 24.0 0.00 0.00 0.00 80 1015.6
20260510053611 48 51 17.0 22.0 0.00 0.00 0.00 81 1015.6
20260510053511 48 52 17.0 20.0 0.00 0.00 0.00 81 1015.6
20260510053410 48 51 17.0 20.0 0.00 0.00 0.00 81 1015.7
20260510053310 48 53 16.0 20.0 0.00 0.00 0.00 81 1015.7
20260510053210 48 52 15.0 20.0 0.00 0.00 0.00 80 1015.7
20260510053110 48 54 17.0 25.0 0.00 0.00 0.00 80 1015.7
20260510053010 48 61 17.0 25.0 0.00 0.00 0.00 80 1015.7
20260510052910 48 48 17.0 25.0 0.00 0.00 0.00 80 1015.7
20260510052810 48 52 16.0 23.0 0.00 0.00 0.00 80 1015.7
20260510052710 48 58 21.0 28.0 0.00 0.00 0.00 80 1015.7
20260510052610 48 53 21.0 25.0 0.00 0.00 0.00 80 1015.7
20260510052510 48 60 21.0 25.0 0.00 0.00 0.00 80 1015.7
20260510052410 48 62 20.0 25.0 0.00 0.00 0.00 80 1015.7
20260510052309 48 54 21.0 26.0 0.00 0.00 0.00 80 1015.7
20260510052209 48 50 20.0 25.0 0.00 0.00 0.00 80 1015.7
20260510052109 48 52 20.0 23.0 0.00 0.00 0.00 80 1015.7
20260510052009 48 54 20.0 30.0 0.00 0.00 0.00 80 1015.8
20260510051909 48 50 18.0 23.0 0.00 0.00 0.00 80 1015.8
20260510051809 48 57 16.0 25.0 0.00 0.00 0.00 80 1015.8
20260510051709 48 55 20.0 26.0 0.00 0.00 0.00 80 1015.8
20260510051609 48 59 18.0 26.0 0.00 0.00 0.00 80 1015.8
20260510051509 48 50 17.0 22.0 0.00 0.00 0.00 80 1015.8
20260510051409 48 53 23.0 26.0 0.00 0.00 0.00 80 1015.8
20260510051309 48 56 21.0 31.0 0.00 0.00 0.00 80 1015.8
20260510051209 48 56 18.0 21.0 0.00 0.00 0.00 80 1015.8
20260510051108 48 55 21.0 23.0 0.00 0.00 0.00 80 1015.8
20260510051008 48 58 21.0 28.0 0.00 0.00 0.00 80 1015.8
20260510050908 48 56 18.0 28.0 0.00 0.00 0.00 80 1015.7
20260510050808 48 50 20.0 25.0 0.00 0.00 0.00 80 1015.8
20260510050708 48 50 18.0 25.0 0.00 0.00 0.00 80 1015.7
20260510050608 48 53 18.0 24.0 0.00 0.00 0.00 80 1015.8
20260510050508 48 48 21.0 25.0 0.00 0.00 0.00 80 1015.8
20260510050408 48 56 18.0 24.0 0.00 0.00 0.00 80 1015.8
20260510050308 48 53 18.0 21.0 0.00 0.00 0.00 80 1015.8
20260510050208 48 54 21.0 26.0 0.00 0.00 0.00 80 1015.8
20260510050108 48 55 17.0 25.0 0.00 0.00 0.00 80 1015.8
20260510050008 48 59 20.0 24.0 0.00 0.00 0.00 80 1015.8
20260510045908 48 52 17.0 23.0 0.00 0.00 0.00 80 1015.8
20260510045808 48 57 18.0 21.0 0.00 0.00 0.00 80 1015.8
20260510045707 48 57 18.0 22.0 0.00 0.00 0.00 80 1015.8
20260510045607 48 50 16.0 22.0 0.00 0.00 0.00 80 1015.8
20260510045507 48 55 18.0 20.0 0.00 0.00 0.00 80 1015.7
20260510045407 48 56 21.0 25.0 0.00 0.00 0.00 80 1015.7
20260510045307 48 55 20.0 29.0 0.00 0.00 0.00 80 1015.7
20260510045207 48 53 17.0 24.0 0.00 0.00 0.00 79 1015.7
20260510045107 48 52 17.0 22.0 0.00 0.00 0.00 79 1015.7
20260510045007 49 51 16.0 21.0 0.00 0.00 0.00 80 1015.7
20260510044907 49 56 20.0 22.0 0.00 0.00 0.00 80 1015.7
20260510044807 48 56 21.0 26.0 0.00 0.00 0.00 80 1015.6
20260510044707 49 50 17.0 24.0 0.00 0.00 0.00 80 1015.6
20260510044607 49 57 17.0 22.0 0.00 0.00 0.00 80 1015.6
20260510044507 49 58 17.0 22.0 0.00 0.00 0.00 80 1015.6
20260510044406 49 51 17.0 20.0 0.00 0.00 0.00 79 1015.6
20260510044306 49 51 18.0 25.0 0.00 0.00 0.00 80 1015.5
20260510044206 49 51 17.0 24.0 0.00 0.00 0.00 80 1015.5
20260510044106 49 54 20.0 24.0 0.00 0.00 0.00 80 1015.5
20260510044006 49 59 20.0 26.0 0.00 0.00 0.00 80 1015.5
20260510043906 49 50 18.0 22.0 0.00 0.00 0.00 80 1015.6
20260510043806 49 49 20.0 23.0 0.00 0.00 0.00 79 1015.6
20260510043706 49 52 20.0 25.0 0.00 0.00 0.00 79 1015.5
20260510043606 49 52 17.0 25.0 0.00 0.00 0.00 79 1015.5
20260510043506 49 55 14.0 25.0 0.00 0.00 0.00 79 1015.6
20260510043406 49 57 15.0 20.0 0.00 0.00 0.00 79 1015.5
20260510043306 49 55 18.0 24.0 0.00 0.00 0.00 79 1015.5
20260510043205 49 53 17.0 24.0 0.00 0.00 0.00 79 1015.5
20260510043105 49 55 17.0 20.0 0.00 0.00 0.00 79 1015.5
20260510043005 49 59 17.0 23.0 0.00 0.00 0.00 79 1015.4
20260510042905 49 58 17.0 22.0 0.00 0.00 0.00 79 1015.5
20260510042805 49 50 17.0 20.0 0.00 0.00 0.00 79 1015.5
20260510042705 49 53 17.0 23.0 0.00 0.00 0.00 79 1015.5
20260510042605 49 55 17.0 18.0 0.00 0.00 0.00 79 1015.5
20260510042505 49 56 17.0 22.0 0.00 0.00 0.00 79 1015.5
20260510042405 49 58 18.0 21.0 0.00 0.00 0.00 79 1015.5
20260510042306 49 55 18.0 24.0 0.00 0.00 0.00 79 1015.5
20260510042205 49 54 17.0 23.0 0.00 0.00 0.00 79 1015.5
20260510042105 49 58 17.0 24.0 0.00 0.00 0.00 79 1015.5
20260510042005 49 56 18.0 24.0 0.00 0.00 0.00 79 1015.5
20260510041904 49 57 18.0 23.0 0.00 0.00 0.00 79 1015.5
20260510041804 49 57 20.0 25.0 0.00 0.00 0.00 79 1015.5
20260510041704 49 56 18.0 23.0 0.00 0.00 0.00 79 1015.5
20260510041604 49 53 15.0 20.0 0.00 0.00 0.00 79 1015.5
20260510041504 49 54 16.0 21.0 0.00 0.00 0.00 78 1015.5
20260510041404 49 53 16.0 22.0 0.00 0.00 0.00 78 1015.6
20260510041304 49 55 17.0 24.0 0.00 0.00 0.00 78 1015.6
20260510041204 49 53 17.0 22.0 0.00 0.00 0.00 78 1015.6
20260510041104 49 55 18.0 23.0 0.00 0.00 0.00 78 1015.5
20260510041004 49 52 18.0 22.0 0.00 0.00 0.00 78 1015.6
20260510040904 49 55 17.0 22.0 0.00 0.00 0.00 77 1015.6
20260510040804 49 54 20.0 25.0 0.00 0.00 0.00 77 1015.6
20260510040704 50 53 15.0 23.0 0.00 0.00 0.00 77 1015.6
20260510040604 49 55 15.0 20.0 0.00 0.00 0.00 77 1015.6
20260510040504 50 56 14.0 16.0 0.00 0.00 0.00 77 1015.6
20260510040404 50 57 14.0 18.0 0.00 0.00 0.00 76 1015.6
20260510040303 50 58 17.0 21.0 0.00 0.00 0.00 76 1015.7
20260510040203 50 59 16.0 20.0 0.00 0.00 0.00 76 1015.7
20260510040103 50 60 15.0 20.0 0.00 0.00 0.00 76 1015.7
20260510040003 50 53 14.0 21.0 0.00 0.00 0.00 76 1015.7
20260510035903 50 51 16.0 17.0 0.00 0.00 0.00 76 1015.8
20260510035803 50 59 17.0 25.0 0.00 0.00 0.00 75 1015.7
20260510035703 50 49 18.0 23.0 0.00 0.00 0.00 75 1015.7
20260510035533 50 57 20.0 25.0 0.00 0.00 0.00 75 1015.7
20260510035433 50 61 20.0 23.0 0.00 0.00 0.00 74 1015.8
20260510035333 50 63 22.0 25.0 0.00 0.00 0.00 74 1015.8
20260510035233 50 55 18.0 28.0 0.00 0.00 0.00 74 1015.8
20260510035133 50 51 17.0 24.0 0.00 0.00 0.00 74 1015.8
20260510035033 50 50 16.0 22.0 0.00 0.00 0.00 74 1015.8
20260510034933 50 63 17.0 23.0 0.00 0.00 0.00 74 1015.8
20260510034833 50 54 17.0 28.0 0.00 0.00 0.00 73 1015.8
20260510034732 50 53 17.0 24.0 0.00 0.00 0.00 73 1015.9
20260510034632 50 54 18.0 25.0 0.00 0.00 0.00 73 1015.9
20260510034532 50 51 18.0 21.0 0.00 0.00 0.00 73 1015.9
20260510034432 50 58 18.0 24.0 0.00 0.00 0.00 73 1015.9
20260510034332 50 58 17.0 21.0 0.00 0.00 0.00 72 1015.9
20260510034232 50 59 20.0 26.0 0.00 0.00 0.00 72 1015.9
20260510034132 50 58 18.0 22.0 0.00 0.00 0.00 72 1015.8
20260510034032 50 58 17.0 23.0 0.00 0.00 0.00 72 1015.8
20260510033932 50 50 17.0 24.0 0.00 0.00 0.00 72 1015.9
20260510033832 50 56 17.0 21.0 0.00 0.00 0.00 72 1015.9
20260510033732 50 58 17.0 23.0 0.00 0.00 0.00 71 1015.9
20260510033632 50 55 16.0 23.0 0.00 0.00 0.00 71 1015.8
20260510033531 50 58 17.0 23.0 0.00 0.00 0.00 71 1015.9
20260510033431 50 59 16.0 22.0 0.00 0.00 0.00 71 1015.9
20260510033331 51 59 16.0 20.0 0.00 0.00 0.00 71 1015.9
20260510033231 51 58 17.0 23.0 0.00 0.00 0.00 70 1015.9
20260510033101 51 49 16.0 20.0 0.00 0.00 0.00 70 1015.9
20260510033001 51 53 17.0 24.0 0.00 0.00 0.00 70 1015.9
20260510032831 51 55 18.0 23.0 0.00 0.00 0.00 69 1016.0
20260510032731 51 55 15.0 21.0 0.00 0.00 0.00 69 1016.0
20260510032631 51 56 16.0 21.0 0.00 0.00 0.00 69 1016.0
20260510032531 51 48 17.0 22.0 0.00 0.00 0.00 69 1016.0
20260510032431 51 53 16.0 21.0 0.00 0.00 0.00 69 1016.0
20260510032301 51 55 17.0 22.0 0.00 0.00 0.00 69 1016.0
20260510032201 51 58 17.0 20.0 0.00 0.00 0.00 68 1016.0
20260510032101 51 54 18.0 24.0 0.00 0.00 0.00 68 1016.0
20260510032001 51 55 17.0 21.0 0.00 0.00 0.00 68 1016.0
20260510031901 51 54 16.0 20.0 0.00 0.00 0.00 68 1016.0
20260510031801 51 56 16.0 25.0 0.00 0.00 0.00 68 1016.0
20260510031701 51 56 16.0 20.0 0.00 0.00 0.00 68 1016.1
20260510031601 51 58 17.0 23.0 0.00 0.00 0.00 68 1016.1
20260510031500 51 50 15.0 21.0 0.00 0.00 0.00 68 1016.1
20260510031400 51 51 16.0 21.0 0.00 0.00 0.00 68 1016.1
20260510031300 51 58 16.0 20.0 0.00 0.00 0.00 68 1016.1
20260510031200 51 55 18.0 21.0 0.00 0.00 0.00 67 1016.2
20260510031100 52 58 17.0 22.0 0.00 0.00 0.00 67 1016.2
20260510031000 52 51 15.0 20.0 0.00 0.00 0.00 67 1016.2
20260510030900 52 47 15.0 20.0 0.00 0.00 0.00 67 1016.2
20260510030800 52 56 14.0 20.0 0.00 0.00 0.00 67 1016.1
20260510030700 52 55 15.0 17.0 0.00 0.00 0.00 67 1016.2
20260510030600 52 56 17.0 21.0 0.00 0.00 0.00 67 1016.2
20260510030500 52 53 15.0 21.0 0.00 0.00 0.00 67 1016.2
20260510030330 52 48 14.0 20.0 0.00 0.00 0.00 67 1016.2
20260510030230 52 58 15.0 20.0 0.00 0.00 0.00 67 1016.2
20260510030130 52 50 16.0 20.0 0.00 0.00 0.00 67 1016.2
20260510030030 52 57 15.0 22.0 0.00 0.00 0.00 67 1016.2
20260510025929 52 55 14.0 22.0 0.00 0.00 0.00 67 1016.2
20260510025829 52 57 14.0 17.0 0.00 0.00 0.00 67 1016.2
20260510025729 52 58 14.0 20.0 0.00 0.00 0.00 67 1016.2
20260510025629 52 57 14.0 20.0 0.00 0.00 0.00 67 1016.2
20260510025529 52 55 15.0 18.0 0.00 0.00 0.00 67 1016.1
20260510025429 52 59 16.0 20.0 0.00 0.00 0.00 67 1016.1
20260510025329 52 57 16.0 20.0 0.00 0.00 0.00 66 1016.2
20260510025229 53 57 15.0 20.0 0.00 0.00 0.00 66 1016.2
20260510025129 53 60 15.0 20.0 0.00 0.00 0.00 66 1016.1
20260510025028 53 51 14.0 17.0 0.00 0.00 0.00 66 1016.1
20260510024928 53 49 14.0 18.0 0.00 0.00 0.00 66 1016.2
20260510024828 53 58 15.0 20.0 0.00 0.00 0.00 65 1016.2
20260510024728 53 59 15.0 18.0 0.00 0.00 0.00 64 1016.1
20260510024628 53 57 15.0 18.0 0.00 0.00 0.00 64 1016.1
20260510024528 53 58 15.0 20.0 0.00 0.00 0.00 64 1016.2
20260510024428 54 53 13.0 20.0 0.00 0.00 0.00 64 1016.2
20260510024328 54 61 13.0 17.0 0.00 0.00 0.00 64 1016.2
20260510024228 54 60 12.0 18.0 0.00 0.00 0.00 64 1016.2
20260510024128 54 64 14.0 20.0 0.00 0.00 0.00 63 1016.2
20260510024028 54 54 13.0 18.0 0.00 0.00 0.00 63 1016.2
20260510023928 54 54 12.0 17.0 0.00 0.00 0.00 62 1016.2
20260510023828 54 61 14.0 18.0 0.00 0.00 0.00 62 1016.2
20260510023728 54 66 17.0 21.0 0.00 0.00 0.00 62 1016.2
20260510023628 54 65 16.0 21.0 0.00 0.00 0.00 62 1016.2
20260510023527 54 63 13.0 20.0 0.00 0.00 0.00 62 1016.3
20260510023427 54 61 14.0 14.0 0.00 0.00 0.00 62 1016.2
20260510023327 54 61 16.0 21.0 0.00 0.00 0.00 62 1016.3
20260510023227 54 64 15.0 20.0 0.00 0.00 0.00 62 1016.2
20260510023127 54 63 16.0 20.0 0.00 0.00 0.00 61 1016.2
20260510023027 54 65 15.0 20.0 0.00 0.00 0.00 61 1016.2
20260510022927 54 60 13.0 18.0 0.00 0.00 0.00 62 1016.2
20260510022827 54 64 12.0 15.0 0.00 0.00 0.00 62 1016.2
20260510022727 54 64 13.0 16.0 0.00 0.00 0.00 62 1016.2
20260510022627 54 59 12.0 14.0 0.00 0.00 0.00 61 1016.2
20260510022527 54 67 14.0 15.0 0.00 0.00 0.00 61 1016.3
20260510022427 54 69 12.0 20.0 0.00 0.00 0.00 61 1016.2
20260510022327 54 62 10.0 12.0 0.00 0.00 0.00 61 1016.2
20260510022226 54 64 12.0 14.0 0.00 0.00 0.00 61 1016.3
20260510022126 54 60 10.0 16.0 0.00 0.00 0.00 61 1016.3
20260510022026 54 60 10.0 14.0 0.00 0.00 0.00 61 1016.3
20260510021926 55 70 12.0 17.0 0.00 0.00 0.00 61 1016.3
20260510021826 55 67 10.0 15.0 0.00 0.00 0.00 61 1016.3
20260510021726 55 66 12.0 13.0 0.00 0.00 0.00 60 1016.3
20260510021626 55 66 12.0 16.0 0.00 0.00 0.00 60 1016.3
20260510021526 55 63 10.0 15.0 0.00 0.00 0.00 60 1016.3
20260510021426 55 74 14.0 17.0 0.00 0.00 0.00 60 1016.2
20260510021326 55 70 13.0 18.0 0.00 0.00 0.00 60 1016.2
20260510021226 55 75 14.0 16.0 0.00 0.00 0.00 60 1016.2
20260510021056 55 66 13.0 18.0 0.00 0.00 0.00 60 1016.2
20260510020956 55 73 13.0 17.0 0.00 0.00 0.00 60 1016.2
20260510020855 55 71 10.0 17.0 0.00 0.00 0.00 60 1016.2
20260510020755 55 64 10.0 12.0 0.00 0.00 0.00 61 1016.2
20260510020655 55 65 13.0 15.0 0.00 0.00 0.00 60 1016.2
20260510020555 55 74 13.0 16.0 0.00 0.00 0.00 60 1016.3
20260510020455 55 65 13.0 18.0 0.00 0.00 0.00 61 1016.3
20260510020355 55 66 14.0 18.0 0.00 0.00 0.00 61 1016.2
20260510020255 55 71 14.0 23.0 0.00 0.00 0.00 61 1016.3
20260510020155 55 75 13.0 15.0 0.00 0.00 0.00 61 1016.2
20260510020055 55 69 15.0 17.0 0.00 0.00 0.00 61 1016.3
20260510015955 55 81 14.0 20.0 0.00 0.00 0.00 61 1016.2
20260510015855 55 70 12.0 17.0 0.00 0.00 0.00 61 1016.2
20260510015755 55 74 12.0 17.0 0.00 0.00 0.00 61 1016.2
20260510015655 55 74 12.0 15.0 0.00 0.00 0.00 61 1016.2
20260510015555 55 78 14.0 17.0 0.00 0.00 0.00 61 1016.2
20260510015455 55 68 13.0 21.0 0.00 0.00 0.00 61 1016.3
20260510015355 55 68 12.0 15.0 0.00 0.00 0.00 61 1016.3
20260510015255 55 71 10.0 14.0 0.00 0.00 0.00 61 1016.2
20260510015154 55 71 12.0 14.0 0.00 0.00 0.00 60 1016.2
20260510015054 55 72 13.0 17.0 0.00 0.00 0.00 60 1016.2
20260510014954 55 80 12.0 18.0 0.00 0.00 0.00 60 1016.2
20260510014854 55 71 12.0 16.0 0.00 0.00 0.00 59 1016.3
20260510014754 55 73 15.0 20.0 0.00 0.00 0.00 59 1016.3
20260510014654 55 77 16.0 22.0 0.00 0.00 0.00 59 1016.2
20260510014554 55 76 15.0 20.0 0.00 0.00 0.00 59 1016.3
20260510014454 55 76 13.0 22.0 0.00 0.00 0.00 60 1016.3
20260510014354 55 73 10.0 14.0 0.00 0.00 0.00 60 1016.3
20260510014254 55 74 13.0 18.0 0.00 0.00 0.00 59 1016.3
20260510014154 55 73 13.0 18.0 0.00 0.00 0.00 59 1016.3
20260510014054 55 64 12.0 17.0 0.00 0.00 0.00 59 1016.2
20260510013954 55 70 12.0 17.0 0.00 0.00 0.00 59 1016.3
20260510013854 55 74 12.0 16.0 0.00 0.00 0.00 59 1016.3
20260510013754 55 77 13.0 16.0 0.00 0.00 0.00 59 1016.3
20260510013654 55 75 13.0 20.0 0.00 0.00 0.00 59 1016.3
20260510013554 55 81 13.0 20.0 0.00 0.00 0.00 59 1016.3
20260510013453 55 77 13.0 16.0 0.00 0.00 0.00 58 1016.3
20260510013353 55 70 12.0 17.0 0.00 0.00 0.00 58 1016.3
20260510013253 55 75 10.0 17.0 0.00 0.00 0.00 58 1016.3
20260510013153 55 69 13.0 13.0 0.00 0.00 0.00 58 1016.2
20260510013023 55 72 13.0 18.0 0.00 0.00 0.00 58 1016.3
20260510012923 55 72 13.0 17.0 0.00 0.00 0.00 58 1016.2
20260510012823 55 76 13.0 17.0 0.00 0.00 0.00 58 1016.3
20260510012723 55 68 12.0 18.0 0.00 0.00 0.00 58 1016.3
20260510012623 55 73 12.0 15.0 0.00 0.00 0.00 58 1016.3
20260510012523 55 73 12.0 16.0 0.00 0.00 0.00 58 1016.3
20260510012423 55 70 13.0 17.0 0.00 0.00 0.00 58 1016.3
20260510012323 55 80 10.0 15.0 0.00 0.00 0.00 59 1016.3
20260510012223 55 80 12.0 13.0 0.00 0.00 0.00 59 1016.3
20260510012123 55 76 12.0 17.0 0.00 0.00 0.00 59 1016.3
20260510012023 55 74 12.0 14.0 0.00 0.00 0.00 59 1016.3
20260510011922 55 67 12.0 16.0 0.00 0.00 0.00 58 1016.3
20260510011822 55 70 13.0 16.0 0.00 0.00 0.00 58 1016.3
20260510011726 55 62 12.0 16.0 0.00 0.00 0.00 58 1016.3
20260510011622 55 66 12.0 16.0 0.00 0.00 0.00 58 1016.3
20260510011522 55 69 12.0 20.0 0.00 0.00 0.00 58 1016.3
20260510011422 55 65 12.0 16.0 0.00 0.00 0.00 58 1016.3
20260510011322 55 67 12.0 14.0 0.00 0.00 0.00 59 1016.3
20260510011222 55 62 10.0 16.0 0.00 0.00 0.00 59 1016.3
20260510011122 55 63 10.0 13.0 0.00 0.00 0.00 58 1016.2
20260510011022 55 72 12.0 14.0 0.00 0.00 0.00 58 1016.3
20260510010922 55 65 12.0 17.0 0.00 0.00 0.00 58 1016.2
20260510010822 55 62 14.0 16.0 0.00 0.00 0.00 58 1016.2
20260510010722 55 65 13.0 20.0 0.00 0.00 0.00 58 1016.2
20260510010622 55 63 14.0 16.0 0.00 0.00 0.00 58 1016.2
20260510010522 55 68 16.0 18.0 0.00 0.00 0.00 59 1016.2
20260510010422 55 63 15.0 21.0 0.00 0.00 0.00 59 1016.2
20260510010322 55 65 13.0 20.0 0.00 0.00 0.00 59 1016.2
20260510010221 55 65 10.0 14.0 0.00 0.00 0.00 59 1016.2
20260510010121 55 61 13.0 21.0 0.00 0.00 0.00 60 1016.2
20260510010021 55 60 14.0 18.0 0.00 0.00 0.00 59 1016.2
20260510005921 55 63 12.0 20.0 0.00 0.00 0.00 60 1016.2
20260510005821 55 60 15.0 18.0 0.00 0.00 0.00 59 1016.2
20260510005721 55 60 15.0 18.0 0.00 0.00 0.00 59 1016.2
20260510005621 55 62 13.0 17.0 0.00 0.00 0.00 59 1016.2
20260510005521 55 62 12.0 18.0 0.00 0.00 0.00 59 1016.2
20260510005421 56 65 10.0 15.0 0.00 0.00 0.00 59 1016.1
20260510005321 55 60 12.0 13.0 0.00 0.00 0.00 59 1016.1
20260510005221 55 66 12.0 15.0 0.00 0.00 0.00 59 1016.1
20260510005121 55 69 12.0 15.0 0.00 0.00 0.00 60 1016.2
20260510005021 55 60 10.0 14.0 0.00 0.00 0.00 60 1016.2
20260510004921 55 60 10.0 16.0 0.00 0.00 0.00 60 1016.1
20260510004821 56 64 10.0 12.0 0.00 0.00 0.00 60 1016.2
20260510004720 56 61 12.0 15.0 0.00 0.00 0.00 61 1016.2
20260510004620 56 66 10.0 15.0 0.00 0.00 0.00 61 1016.2
20260510004520 56 63 9.0 13.0 0.00 0.00 0.00 62 1016.2
20260510004350 56 56 9.0 12.0 0.00 0.00 0.00 61 1016.3
20260510004250 56 61 9.0 12.0 0.00 0.00 0.00 61 1016.3
20260510004150 56 63 8.0 12.0 0.00 0.00 0.00 61 1016.3
20260510004050 56 61 9.0 14.0 0.00 0.00 0.00 61 1016.3
20260510003950 56 58 10.0 14.0 0.00 0.00 0.00 60 1016.3
20260510003850 56 63 9.0 12.0 0.00 0.00 0.00 60 1016.4
20260510003750 56 57 8.0 12.0 0.00 0.00 0.00 60 1016.4
20260510003650 56 53 8.0 12.0 0.00 0.00 0.00 60 1016.4
20260510003550 56 59 8.0 10.0 0.00 0.00 0.00 60 1016.4
20260510003450 56 65 12.0 16.0 0.00 0.00 0.00 60 1016.4
20260510003350 56 59 10.0 13.0 0.00 0.00 0.00 60 1016.4
20260510003250 56 58 8.0 13.0 0.00 0.00 0.00 61 1016.4
20260510003150 56 54 8.0 8.0 0.00 0.00 0.00 61 1016.3
20260510003050 56 58 8.0 12.0 0.00 0.00 0.00 62 1016.4
20260510002949 56 56 8.0 12.0 0.00 0.00 0.00 62 1016.3
20260510002849 56 59 8.0 13.0 0.00 0.00 0.00 63 1016.4
20260510002749 56 55 7.0 9.0 0.00 0.00 0.00 63 1016.3
20260510002619 56 56 9.0 9.0 0.00 0.00 0.00 63 1016.3
20260510002519 56 55 10.0 14.0 0.00 0.00 0.00 63 1016.4
20260510002419 56 59 9.0 14.0 0.00 0.00 0.00 64 1016.3
20260510002319 56 65 9.0 12.0 0.00 0.00 0.00 64 1016.4
20260510002219 56 58 8.0 12.0 0.00 0.00 0.00 65 1016.3
20260510002119 56 61 8.0 10.0 0.00 0.00 0.00 66 1016.3
20260510002019 56 63 6.0 9.0 0.00 0.00 0.00 66 1016.3
20260510001919 56 58 7.0 8.0 0.00 0.00 0.00 66 1016.3
20260510001819 56 60 8.0 8.0 0.00 0.00 0.00 66 1016.3
20260510001719 56 59 8.0 10.0 0.00 0.00 0.00 67 1016.3
20260510001619 56 66 7.0 12.0 0.00 0.00 0.00 67 1016.3
20260510001518 56 53 6.0 7.0 0.00 0.00 0.00 66 1016.3
20260510001418 56 58 6.0 8.0 0.00 0.00 0.00 66 1016.3
20260510001318 56 57 6.0 8.0 0.00 0.00 0.00 66 1016.3
20260510001218 56 60 7.0 7.0 0.00 0.00 0.00 66 1016.3
20260510001118 56 66 6.0 9.0 0.00 0.00 0.00 66 1016.3
20260510000948 57 57 8.0 10.0 0.00 0.00 0.00 64 1016.3
20260510000848 57 63 9.0 12.0 0.00 0.00 0.00 63 1016.3
20260510000718 57 64 9.0 10.0 0.00 0.00 0.00 62 1016.3
20260510000548 57 63 9.0 12.0 0.00 0.00 0.00 59 1016.3
20260510000448 57 65 10.0 15.0 0.00 0.00 0.00 58 1016.3
20260510000349 57 69 10.0 14.0 0.00 0.00 0.00 58 1016.3
20260510000249 57 73 12.0 13.0 0.00 0.00 0.00 58 1016.3
20260510000148 57 71 14.0 18.0 0.00 0.00 0.00 58 1016.3
20260510000018 57 68 14.0 17.0 0.00 0.00 0.00 57 1016.3
20260509235918 57 72 12.0 17.0 0.00 0.00 0.00 57 1016.3
20260509235748 57 79 14.0 17.0 0.00 0.00 0.00 57 1016.3
20260509235648 57 80 13.0 16.0 0.00 0.00 0.00 57 1016.2
20260509235518 57 71 14.0 17.0 0.00 0.00 0.00 56 1016.2
20260509235418 57 77 14.0 17.0 0.00 0.00 0.00 56 1016.2
20260509235318 58 78 13.0 17.0 0.00 0.00 0.00 56 1016.2
20260509235148 58 79 17.0 21.0 0.00 0.00 0.00 55 1016.2
20260509235048 58 90 14.0 20.0 0.00 0.00 0.00 55 1016.2
20260509234948 58 79 14.0 20.0 0.00 0.00 0.00 54 1016.2
20260509234818 58 83 16.0 20.0 0.00 0.00 0.00 54 1016.2
20260509234718 58 84 15.0 22.0 0.00 0.00 0.00 54 1016.2
20260509234618 58 85 15.0 22.0 0.00 0.00 0.00 54 1016.2
20260509234448 58 83 14.0 20.0 0.00 0.00 0.00 55 1016.1
20260509234318 58 93 15.0 16.0 0.00 0.00 0.00 55 1016.2
20260509234218 58 91 16.0 21.0 0.00 0.00 0.00 56 1016.1
20260509234048 58 93 14.0 18.0 0.00 0.00 0.00 56 1016.2
20260509233918 58 80 15.0 18.0 0.00 0.00 0.00 57 1016.1
20260509233818 58 88 16.0 18.0 0.00 0.00 0.00 57 1016.1
20260509233648 58 89 18.0 24.0 0.00 0.00 0.00 56 1016.2
20260509233548 58 86 16.0 24.0 0.00 0.00 0.00 56 1016.2
20260509233448 58 91 16.0 20.0 0.00 0.00 0.00 57 1016.2
20260509233318 58 88 16.0 22.0 0.00 0.00 0.00 57 1016.2
20260509233218 58 87 15.0 20.0 0.00 0.00 0.00 57 1016.2
20260509233118 58 95 13.0 22.0 0.00 0.00 0.00 57 1016.3
20260509233018 58 89 16.0 21.0 0.00 0.00 0.00 57 1016.3
20260509232918 58 89 16.0 23.0 0.00 0.00 0.00 57 1016.3
20260509232748 58 86 14.0 20.0 0.00 0.00 0.00 57 1016.3
20260509232618 58 94 16.0 21.0 0.00 0.00 0.00 57 1016.3
20260509232518 58 96 14.0 21.0 0.00 0.00 0.00 56 1016.3
20260509232418 58 91 14.0 17.0 0.00 0.00 0.00 56 1016.3
20260509232248 58 89 13.0 18.0 0.00 0.00 0.00 56 1016.2
20260509232118 58 97 15.0 20.0 0.00 0.00 0.00 56 1016.2
20260509232018 58 96 16.0 21.0 0.00 0.00 0.00 57 1016.3
20260509231918 58 89 14.0 20.0 0.00 0.00 0.00 57 1016.3
20260509231818 58 92 13.0 16.0 0.00 0.00 0.00 57 1016.3
20260509231648 58 82 15.0 21.0 0.00 0.00 0.00 57 1016.3
20260509231548 58 90 15.0 23.0 0.00 0.00 0.00 57 1016.3
20260509231418 58 85 12.0 18.0 0.00 0.00 0.00 58 1016.3
20260509231248 58 84 13.0 17.0 0.00 0.00 0.00 58 1016.3
20260509231118 58 89 13.0 18.0 0.00 0.00 0.00 59 1016.3
20260509230948 58 79 9.0 14.0 0.00 0.00 0.00 61 1016.3
20260509230848 58 88 13.0 16.0 0.00 0.00 0.00 60 1016.3
20260509230718 58 79 14.0 18.0 0.00 0.00 0.00 61 1016.3
20260509230548 58 85 12.0 18.0 0.00 0.00 0.00 63 1016.3
20260509230448 58 83 12.0 16.0 0.00 0.00 0.00 64 1016.3
20260509230348 58 83 10.0 15.0 0.00 0.00 0.00 65 1016.3
20260509230248 58 89 8.0 12.0 0.00 0.00 0.00 66 1016.3
20260509230118 58 75 6.0 12.0 0.00 0.00 0.00 66 1016.3
20260509225948 58 73 10.0 14.0 0.00 0.00 0.00 66 1016.3
20260509225818 58 70 8.0 12.0 0.00 0.00 0.00 67 1016.4
20260509225718 58 72 7.0 9.0 0.00 0.00 0.00 66 1016.3
20260509225548 58 68 7.0 8.0 0.00 0.00 0.00 65 1016.2
20260509225448 58 68 7.0 8.0 0.00 0.00 0.00 65 1016.2
20260509225318 58 75 8.0 10.0 0.00 0.00 0.00 65 1016.2
20260509225148 58 82 7.0 10.0 0.00 0.00 0.00 65 1016.2
20260509225048 58 81 8.0 12.0 0.00 0.00 0.00 65 1016.2
20260509224918 58 79 6.0 9.0 0.00 0.00 0.00 65 1016.2
20260509224818 58 73 6.0 8.0 0.00 0.00 0.00 65 1016.1
20260509224718 59 75 7.0 8.0 0.00 0.00 0.00 66 1016.1
20260509224618 59 63 6.0 9.0 0.00 0.00 0.00 65 1016.2
20260509224448 59 61 7.0 8.0 0.00 0.00 0.00 64 1016.1
20260509224318 59 62 7.0 9.0 0.00 0.00 0.00 64 1016.1
20260509224218 59 70 7.0 9.0 0.00 0.00 0.00 63 1016.1
20260509224118 59 60 8.0 9.0 0.00 0.00 0.00 63 1016.0
20260509223948 59 67 7.0 10.0 0.00 0.00 0.00 63 1016.0
20260509223818 59 68 7.0 12.0 0.00 0.00 0.00 63 1016.0
20260509223648 59 68 7.0 9.0 0.00 0.00 0.00 64 1016.0
20260509223548 59 70 7.0 8.0 0.00 0.00 0.00 63 1016.0
20260509223448 59 71 8.0 9.0 0.00 0.00 0.00 63 1016.0
20260509223348 59 74 9.0 13.0 0.00 0.00 0.00 63 1016.0
20260509223218 60 62 8.0 12.0 0.00 0.00 0.00 62 1016.0
20260509223048 60 67 9.0 12.0 0.00 0.00 0.00 62 1016.0
20260509222918 60 66 10.0 12.0 0.00 0.00 0.00 61 1016.0
20260509222818 60 77 9.0 13.0 0.00 0.00 0.00 61 1016.0
20260509222718 60 71 10.0 10.0 0.00 0.00 0.00 61 1016.0
20260509222618 60 74 12.0 17.0 0.00 0.00 0.00 61 1016.0
20260509222448 60 76 10.0 13.0 0.00 0.00 0.00 61 1015.9
20260509222348 60 74 10.0 13.0 0.00 0.00 0.00 62 1015.9
20260509222218 60 73 10.0 13.0 0.00 0.00 0.00 62 1015.9
20260509222048 60 76 10.0 14.0 0.00 0.00 0.00 62 1015.9
20260509221948 60 72 10.0 14.0 0.00 0.00 0.00 62 1015.9
20260509221818 60 67 10.0 14.0 0.00 0.00 0.00 63 1015.9
20260509221718 60 71 9.0 14.0 0.00 0.00 0.00 63 1015.9
20260509221618 60 69 9.0 12.0 0.00 0.00 0.00 63 1015.9
20260509221448 60 67 8.0 12.0 0.00 0.00 0.00 63 1015.9
20260509221348 60 67 7.0 12.0 0.00 0.00 0.00 64 1015.9
20260509221248 60 66 8.0 9.0 0.00 0.00 0.00 64 1015.9
20260509221148 60 67 8.0 12.0 0.00 0.00 0.00 63 1015.9
20260509221048 60 65 7.0 10.0 0.00 0.00 0.00 63 1015.9
20260509220918 60 63 6.0 8.0 0.00 0.00 0.00 63 1016.0
20260509220818 60 67 7.0 7.0 0.00 0.00 0.00 63 1015.9
20260509220718 60 67 7.0 9.0 0.00 0.00 0.00 63 1015.9
20260509220548 60 65 8.0 12.0 0.00 0.00 0.00 63 1015.9
20260509220448 60 67 8.0 9.0 0.00 0.00 0.00 62 1015.9
20260509220348 60 69 7.0 9.0 0.00 0.00 0.00 62 1015.9
20260509220218 60 64 7.0 9.0 0.00 0.00 0.00 62 1015.9
20260509220118 60 70 8.0 9.0 0.00 0.00 0.00 62 1015.9
20260509215948 60 70 10.0 13.0 0.00 0.00 0.00 63 1015.9
20260509215818 60 73 8.0 13.0 0.00 0.00 0.00 64 1015.9
20260509215648 59 68 7.0 12.0 0.00 0.00 0.00 65 1015.9
20260509215548 59 70 7.0 12.0 0.00 0.00 0.00 65 1015.9
20260509215418 59 71 7.0 10.0 0.00 0.00 0.00 65 1015.9
20260509215248 59 69 8.0 14.0 0.00 0.00 0.00 66 1015.9
20260509215148 59 64 8.0 10.0 0.00 0.00 0.00 66 1015.9
20260509215048 59 67 10.0 12.0 0.00 0.00 0.00 66 1015.9
20260509214918 59 64 7.0 13.0 0.00 0.00 0.00 67 1015.9
20260509214818 59 70 7.0 8.0 0.00 0.00 0.00 66 1015.9
20260509214648 59 65 6.0 7.0 0.00 0.00 0.00 66 1015.9
20260509214518 59 63 6.0 7.0 0.00 0.00 0.00 66 1015.9
20260509214418 59 63 6.0 6.0 0.00 0.00 0.00 66 1015.9
20260509214248 59 63 7.0 9.0 0.00 0.00 0.00 65 1015.9
20260509214148 60 60 6.0 8.0 0.00 0.00 0.00 65 1015.9
20260509214018 60 66 6.0 7.0 0.00 0.00 0.00 65 1015.9
20260509213848 60 64 7.0 8.0 0.00 0.00 0.00 64 1015.9
20260509213748 60 67 7.0 8.0 0.00 0.00 0.00 64 1015.9
20260509213648 60 61 7.0 9.0 0.00 0.00 0.00 64 1015.9
20260509213518 60 63 7.0 10.0 0.00 0.00 0.00 64 1015.9
20260509213348 60 66 6.0 8.0 0.00 0.00 0.00 64 1015.8
20260509213218 60 65 6.0 7.0 0.00 0.00 0.00 64 1015.8
20260509213118 60 64 5.0 6.0 0.00 0.00 0.00 64 1015.8
20260509213018 60 65 5.0 7.0 0.00 0.00 0.00 64 1015.8
20260509212918 60 62 5.0 6.0 0.00 0.00 0.00 63 1015.8
20260509212748 60 63 6.0 8.0 0.00 0.00 0.00 63 1015.8
20260509212618 60 59 6.0 8.0 0.00 0.00 0.00 63 1015.8
20260509212518 60 61 6.0 8.0 0.00 0.00 0.00 63 1015.9
20260509212418 61 59 6.0 6.0 0.00 0.00 0.00 63 1015.9
20260509212248 61 62 6.0 7.0 0.00 0.00 0.00 62 1015.9
20260509212148 61 63 6.0 8.0 0.00 0.00 0.00 62 1015.9
20260509212048 61 61 6.0 7.0 0.00 0.00 0.00 62 1015.8
20260509211948 61 66 6.0 7.0 0.00 0.00 0.00 62 1015.9
20260509211818 61 64 6.0 7.0 0.00 0.00 0.00 62 1015.8
20260509211648 61 65 5.0 5.0 0.00 0.00 0.00 62 1015.8
20260509211548 61 66 5.0 6.0 0.00 0.00 0.00 62 1015.8
20260509211448 61 67 5.0 6.0 0.00 0.00 0.00 61 1015.9
20260509211318 61 66 5.0 5.0 0.00 0.00 0.00 61 1015.8
20260509211218 61 61 5.0 6.0 0.00 0.00 0.00 61 1015.8
20260509211048 61 66 5.0 5.0 0.00 0.00 0.00 61 1015.8
20260509210948 61 62 5.0 5.0 0.00 0.00 0.00 61 1015.8
20260509210848 61 62 5.0 6.0 0.00 0.00 0.00 61 1015.8
20260509210718 61 63 6.0 6.0 0.00 0.00 0.00 61 1015.8
20260509210548 61 62 5.0 6.0 0.00 0.00 0.00 61 1015.8
20260509210418 61 58 5.0 6.0 0.00 0.00 0.00 61 1015.8
20260509210248 61 48 6.0 7.0 0.00 0.00 0.00 61 1015.8
20260509210118 61 46 6.0 7.0 0.00 0.00 0.00 61 1015.8
20260509205948 61 53 5.0 6.0 0.00 0.00 0.00 61 1015.8
20260509205848 61 57 5.0 5.0 0.00 0.00 0.00 61 1015.8
20260509205748 61 56 5.0 6.0 0.00 0.00 0.00 61 1015.8
20260509205618 61 59 5.0 6.0 0.00 0.00 0.00 61 1015.8
20260509205448 61 57 5.0 6.0 0.00 0.00 0.00 61 1015.8
20260509205348 61 55 5.0 6.0 0.00 0.00 0.00 61 1015.8
20260509205218 61 59 5.0 6.0 0.00 0.00 0.00 61 1015.8
20260509205118 61 52 5.0 5.0 0.00 0.00 0.00 61 1015.8
20260509204948 61 51 5.0 6.0 0.00 0.00 0.00 61 1015.8
20260509204848 61 50 6.0 6.0 0.00 0.00 0.00 61 1015.8
20260509204748 61 49 6.0 6.0 0.00 0.00 0.00 61 1015.8
20260509204618 61 52 6.0 7.0 0.00 0.00 0.00 61 1015.8
20260509204448 61 38 6.0 6.0 0.00 0.00 0.00 61 1015.8
20260509204348 61 44 6.0 7.0 0.00 0.00 0.00 61 1015.8
20260509204218 61 42 6.0 8.0 0.00 0.00 0.00 61 1015.8
20260509204118 61 36 5.0 6.0 0.00 0.00 0.00 61 1015.8
20260509204018 61 41 5.0 6.0 0.00 0.00 0.00 61 1015.8
20260509203918 61 41 5.0 6.0 0.00 0.00 0.00 61 1015.8
20260509203748 61 43 3.0 5.0 0.00 0.00 0.00 61 1015.7
20260509203648 61 46 5.0 6.0 0.00 0.00 0.00 61 1015.7
20260509203548 61 44 3.0 6.0 0.00 0.00 0.00 61 1015.7
20260509203417 61 41 5.0 6.0 0.00 0.00 0.00 61 1015.6
20260509203317 61 48 6.0 6.0 0.00 0.00 0.00 61 1015.6
20260509203148 61 40 6.0 7.0 0.00 0.00 0.00 61 1015.5
20260509203048 61 44 6.0 8.0 0.00 0.00 0.00 61 1015.5
20260509202947 61 33 7.0 9.0 0.00 0.00 0.00 60 1015.4
20260509202847 61 34 7.0 8.0 0.00 0.00 0.00 61 1015.4
20260509202747 61 39 8.0 9.0 0.00 0.00 0.00 60 1015.4
20260509202647 61 37 7.0 9.0 0.00 0.00 0.00 61 1015.4
20260509202547 61 39 8.0 9.0 0.00 0.00 0.00 61 1015.4
20260509202447 61 35 8.0 9.0 0.00 0.00 0.00 61 1015.4
20260509202347 61 36 8.0 9.0 0.00 0.00 0.00 60 1015.4
20260509202247 61 31 9.0 10.0 0.00 0.00 0.00 60 1015.4
20260509202147 61 36 8.0 12.0 0.00 0.00 0.00 61 1015.4
20260509202047 61 33 7.0 10.0 0.00 0.00 0.00 61 1015.4
20260509201947 61 40 6.0 7.0 0.00 0.00 0.00 61 1015.4
20260509201846 60 40 7.0 8.0 0.00 0.00 0.00 61 1015.4
20260509201746 60 38 7.0 9.0 0.00 0.00 0.00 61 1015.5
20260509201647 60 39 7.0 8.0 0.00 0.00 0.00 61 1015.5
20260509201546 60 37 7.0 8.0 0.00 0.00 0.00 61 1015.4
20260509201446 60 29 7.0 9.0 0.00 0.00 0.00 61 1015.4
20260509201346 60 30 7.0 9.0 0.00 0.00 0.00 61 1015.4
20260509201246 60 32 7.0 8.0 0.00 0.00 0.00 61 1015.4
20260509201146 60 33 7.0 8.0 0.00 0.00 0.00 61 1015.4
20260509201046 60 26 7.0 8.0 0.00 0.00 0.00 61 1015.4
20260509200946 60 28 8.0 9.0 0.00 0.00 0.00 61 1015.4
20260509200846 60 27 8.0 8.0 0.00 0.00 0.00 61 1015.4
20260509200746 60 31 7.0 9.0 0.00 0.00 0.00 61 1015.4
20260509200646 61 39 8.0 9.0 0.00 0.00 0.00 61 1015.4
20260509200546 61 31 7.0 10.0 0.00 0.00 0.00 61 1015.4
20260509200446 61 32 7.0 8.0 0.00 0.00 0.00 61 1015.4
20260509200346 61 38 7.0 8.0 0.00 0.00 0.00 61 1015.4
20260509200246 61 39 7.0 8.0 0.00 0.00 0.00 61 1015.4
20260509200145 61 36 7.0 8.0 0.00 0.00 0.00 61 1015.4
20260509200045 61 29 7.0 7.0 0.00 0.00 0.00 61 1015.4
20260509195915 61 26 7.0 8.0 0.00 0.00 0.00 61 1015.4
20260509195815 61 30 6.0 8.0 0.00 0.00 0.00 61 1015.5
20260509195715 61 35 6.0 8.0 0.00 0.00 0.00 61 1015.5
20260509195615 61 27 6.0 8.0 0.00 0.00 0.00 61 1015.5
20260509195445 61 33 7.0 8.0 0.00 0.00 0.00 62 1015.5
20260509195345 61 42 6.0 7.0 0.00 0.00 0.00 62 1015.5
20260509195245 61 36 6.0 8.0 0.00 0.00 0.00 62 1015.5
20260509195145 61 38 6.0 7.0 0.00 0.00 0.00 62 1015.5
20260509195045 61 35 6.0 8.0 0.00 0.00 0.00 62 1015.6
20260509194945 61 40 6.0 7.0 0.00 0.00 0.00 62 1015.6
20260509194845 61 38 5.0 7.0 0.00 0.00 0.00 62 1015.6
20260509194745 61 36 6.0 7.0 0.00 0.00 0.00 62 1015.6
20260509194645 61 40 6.0 7.0 0.00 0.00 0.00 62 1015.6
20260509194545 61 36 6.0 6.0 0.00 0.00 0.00 62 1015.6
20260509194445 61 43 5.0 7.0 0.00 0.00 0.00 62 1015.6
20260509194345 60 47 5.0 6.0 0.00 0.00 0.00 62 1015.6
20260509194245 60 47 3.0 6.0 0.00 0.00 0.00 62 1015.6
20260509194145 60 48 5.0 5.0 0.00 0.00 0.00 62 1015.6
20260509194045 60 50 5.0 5.0 0.00 0.00 0.00 62 1015.6
20260509193945 60 52 5.0 5.0 0.00 0.00 0.00 62 1015.6
20260509193844 60 50 5.0 5.0 0.00 0.00 0.00 62 1015.6
20260509193744 60 54 5.0 5.0 0.00 0.00 0.00 62 1015.6
20260509193644 60 55 5.0 5.0 0.00 0.00 0.00 61 1015.6
20260509193544 60 55 5.0 5.0 0.00 0.00 0.00 61 1015.6
20260509193444 60 51 5.0 5.0 0.00 0.00 0.00 61 1015.6
20260509193344 60 54 5.0 5.0 0.00 0.00 0.00 61 1015.5
20260509193244 60 58 5.0 6.0 0.00 0.00 0.00 61 1015.5
20260509193144 60 57 6.0 6.0 0.00 0.00 0.00 62 1015.5
20260509193044 60 58 5.0 6.0 0.00 0.00 0.00 62 1015.5
20260509192944 60 56 5.0 6.0 0.00 0.00 0.00 62 1015.5
20260509192844 60 57 5.0 6.0 0.00 0.00 0.00 62 1015.5
20260509192744 60 56 5.0 6.0 0.00 0.00 0.00 62 1015.5
20260509192644 60 56 5.0 5.0 0.00 0.00 0.00 62 1015.4
20260509192544 60 54 5.0 6.0 0.00 0.00 0.00 62 1015.5
20260509192443 60 58 5.0 6.0 0.00 0.00 0.00 62 1015.5
20260509192343 60 57 5.0 6.0 0.00 0.00 0.00 62 1015.5
20260509192243 60 58 5.0 5.0 0.00 0.00 0.00 62 1015.4
20260509192143 60 58 5.0 5.0 0.00 0.00 0.00 61 1015.4
20260509192043 60 57 5.0 5.0 0.00 0.00 0.00 61 1015.4
20260509191943 60 56 5.0 6.0 0.00 0.00 0.00 61 1015.4
20260509191843 60 58 5.0 5.0 0.00 0.00 0.00 61 1015.3
20260509191743 60 53 5.0 5.0 0.00 0.00 0.00 61 1015.3
20260509191643 60 57 5.0 6.0 0.00 0.00 0.00 61 1015.3
20260509191543 60 58 5.0 5.0 0.00 0.00 0.00 61 1015.3
20260509191443 60 57 5.0 6.0 0.00 0.00 0.00 61 1015.3
20260509191343 60 59 5.0 6.0 0.00 0.00 0.00 61 1015.3
20260509191242 60 57 5.0 5.0 0.00 0.00 0.00 61 1015.3
20260509191142 60 58 5.0 6.0 0.00 0.00 0.00 61 1015.4
20260509191042 60 61 5.0 6.0 0.00 0.00 0.00 61 1015.4
20260509190942 60 59 6.0 6.0 0.00 0.00 0.00 61 1015.4
20260509190842 60 62 5.0 6.0 0.00 0.00 0.00 61 1015.4
20260509190742 60 59 5.0 6.0 0.00 0.00 0.00 61 1015.4
20260509190642 60 60 5.0 6.0 0.00 0.00 0.00 61 1015.4
20260509190542 60 59 6.0 6.0 0.00 0.00 0.00 61 1015.4
20260509190442 60 62 5.0 7.0 0.00 0.00 0.00 61 1015.4
20260509190342 60 64 5.0 6.0 0.00 0.00 0.00 61 1015.4
20260509190242 60 64 6.0 6.0 0.00 0.00 0.00 61 1015.4
20260509190141 60 61 6.0 7.0 0.00 0.00 0.00 61 1015.4
20260509190041 60 61 5.0 6.0 0.00 0.00 0.00 60 1015.4
20260509185941 60 61 5.0 7.0 0.00 0.00 0.00 60 1015.3
20260509185841 60 62 5.0 5.0 0.00 0.00 0.00 60 1015.3
20260509185741 60 63 5.0 5.0 0.00 0.00 0.00 60 1015.3
20260509185641 60 66 5.0 5.0 0.00 0.00 0.00 60 1015.2
20260509185541 60 66 3.0 5.0 0.00 0.00 0.00 60 1015.3
20260509185441 60 65 3.0 3.0 0.00 0.00 0.00 60 1015.3
20260509185341 61 73 3.0 5.0 0.00 0.00 0.00 59 1015.3
20260509185241 61 72 3.0 5.0 0.00 0.00 0.00 59 1015.3
20260509185141 61 74 3.0 5.0 0.00 0.00 0.00 59 1015.2
20260509185040 61 68 3.0 5.0 0.00 0.00 0.00 59 1015.2
20260509184940 61 64 5.0 5.0 0.00 0.00 0.00 59 1015.2
20260509184840 61 64 5.0 6.0 0.00 0.00 0.00 58 1015.2
20260509184740 61 73 6.0 7.0 0.00 0.00 0.00 58 1015.2
20260509184640 61 75 5.0 7.0 0.00 0.00 0.00 58 1015.2
20260509184540 61 76 6.0 5.0 0.00 0.00 0.00 58 1015.2
20260509184440 61 89 6.0 8.0 0.00 0.00 0.00 58 1015.2
20260509184340 61 82 6.0 7.0 0.00 0.00 0.00 58 1015.2
20260509184240 61 82 6.0 7.0 0.00 0.00 0.00 58 1015.3
20260509184140 61 76 7.0 9.0 0.00 0.00 0.00 57 1015.3
20260509184040 61 78 6.0 9.0 0.00 0.00 0.00 57 1015.3
20260509183940 61 83 6.0 7.0 0.00 0.00 0.00 58 1015.3
20260509183840 61 79 7.0 9.0 0.00 0.00 0.00 58 1015.3
20260509183740 61 86 7.0 12.0 0.00 0.00 0.00 58 1015.3
20260509183639 61 89 6.0 9.0 0.00 0.00 0.00 58 1015.3
20260509183539 61 79 6.0 8.0 0.00 0.00 0.00 58 1015.4
20260509183439 61 84 7.0 8.0 0.00 0.00 0.00 58 1015.3
20260509183339 61 83 7.0 9.0 0.00 0.00 0.00 58 1015.3
20260509183239 61 81 7.0 8.0 0.00 0.00 0.00 58 1015.4
20260509183139 61 80 7.0 8.0 0.00 0.00 0.00 58 1015.4
20260509183039 61 73 7.0 8.0 0.00 0.00 0.00 59 1015.4
20260509182939 61 80 7.0 9.0 0.00 0.00 0.00 59 1015.4
20260509182839 61 73 6.0 9.0 0.00 0.00 0.00 59 1015.4
20260509182739 61 81 6.0 7.0 0.00 0.00 0.00 58 1015.4
20260509182639 61 77 6.0 8.0 0.00 0.00 0.00 59 1015.4
20260509182539 61 78 6.0 7.0 0.00 0.00 0.00 58 1015.4
20260509182439 61 76 6.0 9.0 0.00 0.00 0.00 58 1015.4
20260509182339 61 83 7.0 12.0 0.00 0.00 0.00 58 1015.4
20260509182238 61 79 7.0 12.0 0.00 0.00 0.00 59 1015.4
20260509182138 61 79 5.0 9.0 0.00 0.00 0.00 59 1015.3
20260509182038 61 76 7.0 10.0 0.00 0.00 0.00 58 1015.3
20260509181938 61 80 5.0 10.0 0.00 0.00 0.00 59 1015.3
20260509181838 61 76 6.0 6.0 0.00 0.00 0.00 59 1015.3
20260509181738 61 88 5.0 7.0 0.00 0.00 0.00 58 1015.4
20260509181638 61 85 6.0 9.0 0.00 0.00 0.00 59 1015.3
20260509181538 61 83 6.0 9.0 0.00 0.00 0.00 59 1015.4
20260509181438 61 85 7.0 9.0 0.00 0.00 0.00 59 1015.4
20260509181338 61 82 6.0 9.0 0.00 0.00 0.00 59 1015.4
20260509181238 61 92 6.0 7.0 0.00 0.00 0.00 59 1015.4
20260509181138 61 88 7.0 8.0 0.00 0.00 0.00 58 1015.4
20260509181038 61 98 6.0 9.0 0.00 0.00 0.00 59 1015.4
20260509180938 61 101 7.0 9.0 0.00 0.00 0.00 58 1015.4
20260509180838 61 103 6.0 9.0 0.00 0.00 0.00 59 1015.4
20260509180738 61 101 7.0 9.0 0.00 0.00 0.00 59 1015.4
20260509180638 61 86 6.0 9.0 0.00 0.00 0.00 59 1015.4
20260509180537 61 104 6.0 7.0 0.00 0.00 0.00 58 1015.5
20260509180437 61 112 7.0 8.0 0.00 0.00 0.00 58 1015.5
20260509180337 61 92 7.0 9.0 0.00 0.00 0.00 58 1015.5
20260509180237 61 110 7.0 10.0 0.00 0.00 0.00 58 1015.5
20260509180137 61 97 7.0 8.0 0.00 0.00 0.00 58 1015.5
20260509180037 61 89 6.0 8.0 0.00 0.00 0.00 57 1015.5
20260509175937 61 101 6.0 9.0 0.00 0.00 0.00 58 1015.5
20260509175837 61 107 6.0 7.0 0.00 0.00 0.00 57 1015.5
20260509175737 61 98 8.0 10.0 0.00 0.00 0.00 57 1015.4
20260509175637 61 100 8.0 13.0 0.00 0.00 0.00 57 1015.5
20260509175537 61 95 7.0 8.0 0.00 0.00 0.00 57 1015.4
20260509175437 61 105 8.0 10.0 0.00 0.00 0.00 57 1015.5
20260509175337 61 103 8.0 10.0 0.00 0.00 0.00 56 1015.4
20260509175237 61 97 8.0 12.0 0.00 0.00 0.00 57 1015.4
20260509175137 61 116 7.0 10.0 0.00 0.00 0.00 57 1015.4
20260509175037 61 105 6.0 10.0 0.00 0.00 0.00 57 1015.4
20260509174936 61 99 6.0 8.0 0.00 0.00 0.00 57 1015.4
20260509174836 61 109 5.0 7.0 0.00 0.00 0.00 58 1015.3
20260509174736 61 109 6.0 6.0 0.00 0.00 0.00 57 1015.3
20260509174636 61 107 7.0 9.0 0.00 0.00 0.00 58 1015.3
20260509174536 61 100 6.0 9.0 0.00 0.00 0.00 58 1015.3
20260509174436 61 103 6.0 8.0 0.00 0.00 0.00 57 1015.3
20260509174336 61 104 6.0 8.0 0.00 0.00 0.00 58 1015.3
20260509174236 61 113 7.0 9.0 0.00 0.00 0.00 58 1015.3
20260509174136 61 115 9.0 13.0 0.00 0.00 0.00 58 1015.3
20260509174036 61 93 6.0 13.0 0.00 0.00 0.00 59 1015.3
20260509173936 61 102 6.0 8.0 0.00 0.00 0.00 59 1015.3
20260509173836 61 110 6.0 8.0 0.00 0.00 0.00 59 1015.3
20260509173736 61 104 6.0 7.0 0.00 0.00 0.00 59 1015.3
20260509173636 61 112 7.0 9.0 0.00 0.00 0.00 59 1015.3
20260509173536 61 115 7.0 8.0 0.00 0.00 0.00 59 1015.3
20260509173436 61 117 6.0 7.0 0.00 0.00 0.00 59 1015.3
20260509173336 61 117 6.0 8.0 0.00 0.00 0.00 59 1015.3
20260509173236 61 97 6.0 6.0 0.00 0.00 0.00 59 1015.3
20260509173135 61 107 7.0 9.0 0.00 0.00 0.00 59 1015.3
20260509173035 61 116 7.0 12.0 0.00 0.00 0.00 58 1015.3
20260509172935 61 121 9.0 12.0 0.00 0.00 0.00 58 1015.3
20260509172835 61 120 8.0 12.0 0.00 0.00 0.00 59 1015.3
20260509172735 61 108 8.0 10.0 0.00 0.00 0.00 58 1015.3
20260509172635 61 109 8.0 10.0 0.00 0.00 0.00 59 1015.3
20260509172535 61 113 8.0 12.0 0.00 0.00 0.00 58 1015.3
20260509172435 61 97 10.0 12.0 0.00 0.00 0.00 58 1015.3
20260509172335 61 109 10.0 15.0 0.00 0.00 0.00 59 1015.3
20260509172205 61 117 9.0 10.0 0.00 0.00 0.00 58 1015.2
20260509172105 61 122 8.0 12.0 0.00 0.00 0.00 58 1015.2
20260509172005 61 110 7.0 12.0 0.00 0.00 0.00 58 1015.2
20260509171904 61 119 7.0 8.0 0.00 0.00 0.00 58 1015.2
20260509171804 61 112 7.0 9.0 0.00 0.00 0.00 58 1015.2
20260509171704 61 102 8.0 10.0 0.00 0.00 0.00 59 1015.2
20260509171534 61 115 9.0 12.0 0.00 0.00 0.00 59 1015.2
20260509171434 61 120 8.0 12.0 0.00 0.00 0.00 58 1015.2
20260509171334 61 117 9.0 12.0 0.00 0.00 0.00 58 1015.2
20260509171234 61 116 9.0 12.0 0.00 0.00 0.00 57 1015.2
20260509171104 61 113 8.0 13.0 0.00 0.00 0.00 58 1015.3
20260509171004 61 102 6.0 10.0 0.00 0.00 0.00 59 1015.3
20260509170904 61 99 8.0 9.0 0.00 0.00 0.00 58 1015.2
20260509170804 61 100 9.0 10.0 0.00 0.00 0.00 57 1015.3
20260509170704 61 119 8.0 12.0 0.00 0.00 0.00 59 1015.3
20260509170534 61 105 8.0 10.0 0.00 0.00 0.00 58 1015.3
20260509170434 61 121 9.0 12.0 0.00 0.00 0.00 59 1015.3
20260509170334 61 116 9.0 12.0 0.00 0.00 0.00 59 1015.3
20260509170234 61 110 10.0 12.0 0.00 0.00 0.00 59 1015.3
20260509170134 61 94 10.0 13.0 0.00 0.00 0.00 59 1015.3
20260509170034 61 122 10.0 12.0 0.00 0.00 0.00 59 1015.3
20260509165933 61 136 12.0 14.0 0.00 0.00 0.00 59 1015.3
20260509165833 61 126 12.0 13.0 0.00 0.00 0.00 59 1015.3
20260509165733 61 126 12.0 15.0 0.00 0.00 0.00 58 1015.4
20260509165633 61 130 12.0 15.0 0.00 0.00 0.00 58 1015.4
20260509165533 61 126 9.0 15.0 0.00 0.00 0.00 58 1015.4
20260509165433 61 127 12.0 12.0 0.00 0.00 0.00 58 1015.4
20260509165306 61 121 10.0 14.0 0.00 0.00 0.00 59 1015.4
20260509165203 61 138 9.0 13.0 0.00 0.00 0.00 59 1015.4
20260509165103 61 139 10.0 14.0 0.00 0.00 0.00 59 1015.4
20260509165003 61 123 9.0 12.0 0.00 0.00 0.00 59 1015.5
20260509164903 61 126 9.0 12.0 0.00 0.00 0.00 59 1015.4
20260509164803 61 134 10.0 13.0 0.00 0.00 0.00 59 1015.5
20260509164703 61 126 9.0 12.0 0.00 0.00 0.00 59 1015.4
20260509164603 61 131 9.0 12.0 0.00 0.00 0.00 59 1015.4
20260509164502 61 128 10.0 12.0 0.00 0.00 0.00 60 1015.5
20260509164333 61 119 13.0 17.0 0.00 0.00 0.00 58 1015.5
20260509164232 61 120 10.0 15.0 0.00 0.00 0.00 58 1015.5
20260509164132 61 134 9.0 12.0 0.00 0.00 0.00 59 1015.5
20260509164032 61 136 9.0 12.0 0.00 0.00 0.00 59 1015.5
20260509163932 61 121 9.0 12.0 0.00 0.00 0.00 58 1015.5
20260509163832 61 117 9.0 12.0 0.00 0.00 0.00 59 1015.5
20260509163732 61 129 8.0 12.0 0.00 0.00 0.00 59 1015.5
20260509163632 61 110 8.0 12.0 0.00 0.00 0.00 58 1015.5
20260509163532 61 120 10.0 12.0 0.00 0.00 0.00 58 1015.5
20260509163432 61 109 9.0 13.0 0.00 0.00 0.00 59 1015.6
20260509163332 61 118 9.0 12.0 0.00 0.00 0.00 59 1015.5
20260509163232 61 125 8.0 12.0 0.00 0.00 0.00 60 1015.6
20260509163132 61 111 7.0 10.0 0.00 0.00 0.00 60 1015.6
20260509163032 61 122 8.0 12.0 0.00 0.00 0.00 60 1015.6
20260509162932 61 111 7.0 10.0 0.00 0.00 0.00 61 1015.6
20260509162831 61 121 8.0 9.0 0.00 0.00 0.00 61 1015.6
20260509162731 60 119 10.0 12.0 0.00 0.00 0.00 60 1015.6
20260509162631 60 129 10.0 13.0 0.00 0.00 0.00 59 1015.6
20260509162531 61 127 13.0 16.0 0.00 0.00 0.00 60 1015.6
20260509162431 61 124 10.0 14.0 0.00 0.00 0.00 60 1015.6
20260509162331 61 127 9.0 12.0 0.00 0.00 0.00 59 1015.5
20260509162231 61 122 10.0 12.0 0.00 0.00 0.00 59 1015.5
20260509162131 61 113 9.0 15.0 0.00 0.00 0.00 59 1015.5
20260509162031 61 123 8.0 12.0 0.00 0.00 0.00 59 1015.5
20260509161931 61 134 8.0 12.0 0.00 0.00 0.00 59 1015.5
20260509161831 61 121 9.0 13.0 0.00 0.00 0.00 59 1015.5
20260509161731 61 128 7.0 12.0 0.00 0.00 0.00 59 1015.5
20260509161631 61 139 8.0 9.0 0.00 0.00 0.00 60 1015.5
20260509161531 61 112 9.0 12.0 0.00 0.00 0.00 59 1015.6
20260509161431 61 111 9.0 12.0 0.00 0.00 0.00 60 1015.6
20260509161331 61 117 9.0 12.0 0.00 0.00 0.00 59 1015.6
20260509161231 61 114 8.0 12.0 0.00 0.00 0.00 59 1015.6
20260509161130 61 129 8.0 12.0 0.00 0.00 0.00 59 1015.5
20260509161000 61 124 9.0 12.0 0.00 0.00 0.00 60 1015.6
20260509160900 61 124 9.0 10.0 0.00 0.00 0.00 59 1015.6
20260509160800 61 126 8.0 12.0 0.00 0.00 0.00 59 1015.6
20260509160700 61 108 9.0 12.0 0.00 0.00 0.00 58 1015.6
20260509160600 61 121 9.0 13.0 0.00 0.00 0.00 59 1015.6
20260509160500 61 130 7.0 12.0 0.00 0.00 0.00 59 1015.6
20260509160400 61 109 7.0 9.0 0.00 0.00 0.00 59 1015.6
20260509160300 61 118 9.0 12.0 0.00 0.00 0.00 59 1015.6
20260509160200 61 127 9.0 12.0 0.00 0.00 0.00 58 1015.6
20260509160100 61 122 8.0 12.0 0.00 0.00 0.00 59 1015.6
20260509160000 61 106 8.0 12.0 0.00 0.00 0.00 58 1015.6
20260509155900 61 118 10.0 15.0 0.00 0.00 0.00 58 1015.6
20260509155800 61 114 7.0 17.0 0.00 0.00 0.00 59 1015.6
20260509155700 61 115 7.0 10.0 0.00 0.00 0.00 58 1015.6
20260509155559 61 135 9.0 13.0 0.00 0.00 0.00 59 1015.6
20260509155459 61 108 9.0 12.0 0.00 0.00 0.00 58 1015.6
20260509155359 61 111 9.0 13.0 0.00 0.00 0.00 58 1015.6
20260509155159 61 100 8.0 12.0 0.00 0.00 0.00 58 1015.6
20260509155059 61 110 10.0 13.0 0.00 0.00 0.00 57 1015.6
20260509155010 61 114 12.0 15.0 0.00 0.00 0.00 58 1015.6
20260509154759 61 125 9.0 12.0 0.00 0.00 0.00 58 1015.6
20260509154659 62 131 10.0 14.0 0.00 0.00 0.00 58 1015.6
20260509154559 62 128 10.0 14.0 0.00 0.00 0.00 58 1015.6
20260509154459 62 122 12.0 14.0 0.00 0.00 0.00 57 1015.6
20260509154258 62 121 8.0 13.0 0.00 0.00 0.00 58 1015.6
20260509154252 62 150 7.0 12.0 0.00 0.00 0.00 58 1015.6
20260509153958 62 133 8.0 10.0 0.00 0.00 0.00 57 1015.5
20260509153858 62 135 9.0 12.0 0.00 0.00 0.00 57 1015.6
20260509153758 62 139 8.0 12.0 0.00 0.00 0.00 57 1015.5
20260509153658 62 144 8.0 12.0 0.00 0.00 0.00 57 1015.5
20260509153558 62 127 10.0 12.0 0.00 0.00 0.00 56 1015.5
20260509153458 62 128 9.0 14.0 0.00 0.00 0.00 57 1015.5
20260509153358 63 135 8.0 12.0 0.00 0.00 0.00 57 1015.5
20260509153258 63 127 9.0 13.0 0.00 0.00 0.00 56 1015.5
20260509153158 63 122 10.0 14.0 0.00 0.00 0.00 56 1015.5
20260509153058 63 134 10.0 13.0 0.00 0.00 0.00 56 1015.5
20260509152958 63 124 8.0 16.0 0.00 0.00 0.00 56 1015.6
20260509152857 63 145 8.0 10.0 0.00 0.00 0.00 56 1015.6
20260509152757 63 124 8.0 13.0 0.00 0.00 0.00 56 1015.6
20260509152657 63 130 8.0 10.0 0.00 0.00 0.00 57 1015.6
20260509152557 63 161 8.0 12.0 0.00 0.00 0.00 56 1015.5
20260509152457 63 122 9.0 12.0 0.00 0.00 0.00 57 1015.5
20260509152357 63 114 10.0 12.0 0.00 0.00 0.00 56 1015.5
20260509152257 63 143 7.0 13.0 0.00 0.00 0.00 57 1015.6
20260509152157 63 148 7.0 9.0 0.00 0.00 0.00 57 1015.5
20260509152057 63 139 8.0 12.0 0.00 0.00 0.00 57 1015.6
20260509151957 63 143 7.0 13.0 0.00 0.00 0.00 57 1015.6
20260509151857 63 140 9.0 12.0 0.00 0.00 0.00 57 1015.6
20260509151757 63 158 9.0 12.0 0.00 0.00 0.00 58 1015.6
20260509151657 63 146 8.0 12.0 0.00 0.00 0.00 58 1015.6
20260509151556 63 139 9.0 12.0 0.00 0.00 0.00 58 1015.6
20260509151456 63 135 8.0 12.0 0.00 0.00 0.00 59 1015.6
20260509151356 62 127 9.0 12.0 0.00 0.00 0.00 58 1015.6
20260509151256 62 136 9.0 14.0 0.00 0.00 0.00 58 1015.6
20260509151156 62 132 8.0 12.0 0.00 0.00 0.00 59 1015.6
20260509151056 62 123 9.0 12.0 0.00 0.00 0.00 57 1015.6
20260509150956 62 138 10.0 13.0 0.00 0.00 0.00 58 1015.6
20260509150856 62 144 8.0 14.0 0.00 0.00 0.00 58 1015.6
20260509150756 62 112 8.0 12.0 0.00 0.00 0.00 59 1015.6
20260509150656 62 131 7.0 10.0 0.00 0.00 0.00 59 1015.6
20260509150556 62 136 7.0 9.0 0.00 0.00 0.00 59 1015.7
20260509150456 62 146 6.0 9.0 0.00 0.00 0.00 58 1015.7
20260509150356 62 142 9.0 12.0 0.00 0.00 0.00 57 1015.7
20260509150255 62 144 10.0 13.0 0.00 0.00 0.00 56 1015.7
20260509150156 63 127 10.0 14.0 0.00 0.00 0.00 56 1015.7
20260509150055 63 141 7.0 14.0 0.00 0.00 0.00 58 1015.7
20260509145955 63 142 7.0 8.0 0.00 0.00 0.00 57 1015.7
20260509145855 63 118 8.0 10.0 0.00 0.00 0.00 57 1015.8
20260509145755 63 117 8.0 10.0 0.00 0.00 0.00 57 1015.8
20260509145655 63 148 7.0 10.0 0.00 0.00 0.00 57 1015.8
20260509145555 63 126 8.0 10.0 0.00 0.00 0.00 56 1015.8
20260509145455 63 121 7.0 13.0 0.00 0.00 0.00 58 1015.8
20260509145355 63 144 9.0 13.0 0.00 0.00 0.00 57 1015.8
20260509145255 63 131 10.0 12.0 0.00 0.00 0.00 55 1015.8
20260509145155 63 129 9.0 14.0 0.00 0.00 0.00 57 1015.8
20260509145055 63 131 7.0 12.0 0.00 0.00 0.00 58 1015.9
20260509144955 63 143 9.0 12.0 0.00 0.00 0.00 57 1015.9
20260509144855 63 129 9.0 14.0 0.00 0.00 0.00 56 1015.9
20260509144755 63 141 10.0 14.0 0.00 0.00 0.00 57 1015.9
20260509144655 63 137 9.0 13.0 0.00 0.00 0.00 57 1015.9
20260509144555 63 133 8.0 12.0 0.00 0.00 0.00 57 1015.9
20260509144455 63 140 8.0 12.0 0.00 0.00 0.00 56 1015.9
20260509144354 63 134 8.0 16.0 0.00 0.00 0.00 56 1016.0
20260509144254 63 144 9.0 12.0 0.00 0.00 0.00 56 1016.0
20260509144154 63 153 8.0 14.0 0.00 0.00 0.00 56 1016.0
20260509144054 63 143 9.0 12.0 0.00 0.00 0.00 56 1016.0
20260509143954 63 134 9.0 12.0 0.00 0.00 0.00 57 1016.0
20260509143854 63 136 6.0 13.0 0.00 0.00 0.00 56 1016.0
20260509143754 63 152 8.0 9.0 0.00 0.00 0.00 56 1016.0
20260509143654 63 158 10.0 14.0 0.00 0.00 0.00 56 1016.0
20260509143554 63 135 12.0 13.0 0.00 0.00 0.00 55 1016.0
20260509143424 63 124 12.0 15.0 0.00 0.00 0.00 55 1016.1
20260509143324 63 127 10.0 13.0 0.00 0.00 0.00 55 1016.0
20260509143224 63 137 9.0 13.0 0.00 0.00 0.00 55 1016.0
20260509143125 63 156 10.0 13.0 0.00 0.00 0.00 55 1016.0
20260509143025 63 141 9.0 15.0 0.00 0.00 0.00 55 1016.1
20260509142923 63 130 8.0 13.0 0.00 0.00 0.00 56 1016.1
20260509142825 63 132 7.0 13.0 0.00 0.00 0.00 56 1016.1
20260509142723 63 140 7.0 10.0 0.00 0.00 0.00 56 1016.1
20260509142623 63 140 7.0 9.0 0.00 0.00 0.00 55 1016.1
20260509142523 63 154 8.0 10.0 0.00 0.00 0.00 56 1016.1
20260509142423 62 146 8.0 12.0 0.00 0.00 0.00 55 1016.1
20260509142323 62 147 10.0 12.0 0.00 0.00 0.00 55 1016.1
20260509142224 63 138 10.0 13.0 0.00 0.00 0.00 55 1016.1
20260509142123 63 137 9.0 13.0 0.00 0.00 0.00 55 1016.2
20260509142023 63 138 12.0 13.0 0.00 0.00 0.00 54 1016.2
20260509141923 63 144 9.0 13.0 0.00 0.00 0.00 55 1016.2
20260509141823 63 148 9.0 12.0 0.00 0.00 0.00 55 1016.2
20260509141723 63 135 10.0 14.0 0.00 0.00 0.00 55 1016.2
20260509141623 63 141 9.0 14.0 0.00 0.00 0.00 56 1016.2
20260509141523 62 135 9.0 13.0 0.00 0.00 0.00 56 1016.2
20260509141423 62 134 10.0 13.0 0.00 0.00 0.00 55 1016.2
20260509141327 62 126 9.0 14.0 0.00 0.00 0.00 56 1016.3
20260509141222 62 127 10.0 14.0 0.00 0.00 0.00 55 1016.2
20260509141122 63 127 10.0 14.0 0.00 0.00 0.00 55 1016.2
20260509141022 63 137 9.0 12.0 0.00 0.00 0.00 56 1016.2
20260509140922 63 138 9.0 12.0 0.00 0.00 0.00 56 1016.3
20260509140822 63 125 10.0 13.0 0.00 0.00 0.00 55 1016.2
20260509140722 63 140 8.0 13.0 0.00 0.00 0.00 55 1016.2
20260509140622 63 149 8.0 12.0 0.00 0.00 0.00 56 1016.2
20260509140522 63 149 8.0 12.0 0.00 0.00 0.00 56 1016.2
20260509140422 63 134 9.0 12.0 0.00 0.00 0.00 56 1016.2
20260509140322 63 139 9.0 12.0 0.00 0.00 0.00 56 1016.2
20260509140222 63 147 9.0 12.0 0.00 0.00 0.00 55 1016.2
20260509140121 63 139 9.0 12.0 0.00 0.00 0.00 54 1016.2
20260509140021 63 134 8.0 12.0 0.00 0.00 0.00 55 1016.2
20260509135921 64 161 8.0 12.0 0.00 0.00 0.00 55 1016.2
20260509135822 64 148 8.0 12.0 0.00 0.00 0.00 56 1016.2
20260509135721 64 149 8.0 13.0 0.00 0.00 0.00 56 1016.2
20260509135621 64 132 9.0 10.0 0.00 0.00 0.00 56 1016.2
20260509135521 63 125 9.0 12.0 0.00 0.00 0.00 56 1016.2
20260509135421 63 135 9.0 13.0 0.00 0.00 0.00 57 1016.2
20260509135321 63 141 9.0 13.0 0.00 0.00 0.00 56 1016.2
20260509135221 63 134 8.0 13.0 0.00 0.00 0.00 57 1016.2
20260509135121 63 140 8.0 10.0 0.00 0.00 0.00 57 1016.2
20260509135021 63 155 8.0 13.0 0.00 0.00 0.00 58 1016.2
20260509134921 63 152 9.0 13.0 0.00 0.00 0.00 58 1016.3
20260509134821 63 141 10.0 13.0 0.00 0.00 0.00 57 1016.2
20260509134721 63 137 10.0 13.0 0.00 0.00 0.00 57 1016.2
20260509134621 63 137 10.0 13.0 0.00 0.00 0.00 58 1016.3
20260509134521 63 127 10.0 13.0 0.00 0.00 0.00 57 1016.2
20260509134421 63 138 9.0 13.0 0.00 0.00 0.00 58 1016.2
20260509134320 63 135 8.0 12.0 0.00 0.00 0.00 59 1016.2
20260509134150 63 137 9.0 14.0 0.00 0.00 0.00 59 1016.2
20260509134050 63 144 9.0 12.0 0.00 0.00 0.00 59 1016.2
20260509133950 63 142 10.0 13.0 0.00 0.00 0.00 60 1016.2
20260509133850 63 135 10.0 13.0 0.00 0.00 0.00 59 1016.2
20260509133750 63 146 8.0 17.0 0.00 0.00 0.00 59 1016.2
20260509133650 63 135 8.0 10.0 0.00 0.00 0.00 59 1016.2
20260509133550 63 131 10.0 13.0 0.00 0.00 0.00 59 1016.1
20260509133450 63 132 10.0 13.0 0.00 0.00 0.00 59 1016.2
20260509133350 63 142 10.0 14.0 0.00 0.00 0.00 59 1016.2
20260509133250 63 121 9.0 14.0 0.00 0.00 0.00 59 1016.2
20260509133150 63 138 9.0 13.0 0.00 0.00 0.00 60 1016.2
20260509133050 63 138 9.0 12.0 0.00 0.00 0.00 60 1016.2
20260509132950 63 153 10.0 18.0 0.00 0.00 0.00 61 1016.2
20260509132850 63 140 12.0 15.0 0.00 0.00 0.00 61 1016.2
20260509132750 63 129 13.0 15.0 0.00 0.00 0.00 61 1016.2
20260509132649 63 129 13.0 17.0 0.00 0.00 0.00 61 1016.2
20260509132549 63 135 13.0 15.0 0.00 0.00 0.00 59 1016.1
20260509132449 63 131 13.0 17.0 0.00 0.00 0.00 60 1016.2
20260509132349 63 138 12.0 15.0 0.00 0.00 0.00 59 1016.2
20260509132249 63 126 10.0 14.0 0.00 0.00 0.00 60 1016.2
20260509132149 63 143 12.0 13.0 0.00 0.00 0.00 60 1016.2
20260509132049 64 129 13.0 16.0 0.00 0.00 0.00 59 1016.2
20260509131919 64 137 10.0 15.0 0.00 0.00 0.00 59 1016.2
20260509131819 64 142 10.0 13.0 0.00 0.00 0.00 58 1016.1
20260509131719 64 139 9.0 17.0 0.00 0.00 0.00 59 1016.1
20260509131619 64 134 10.0 12.0 0.00 0.00 0.00 59 1016.2
20260509131519 64 121 10.0 18.0 0.00 0.00 0.00 58 1016.2
20260509131418 64 137 10.0 14.0 0.00 0.00 0.00 59 1016.2
20260509131318 64 129 8.0 14.0 0.00 0.00 0.00 60 1016.2
20260509131218 64 133 9.0 13.0 0.00 0.00 0.00 60 1016.2
20260509131118 64 112 10.0 12.0 0.00 0.00 0.00 59 1016.2
20260509131018 64 116 13.0 15.0 0.00 0.00 0.00 58 1016.2
20260509130918 64 120 13.0 18.0 0.00 0.00 0.00 59 1016.2
20260509130818 64 119 12.0 15.0 0.00 0.00 0.00 59 1016.2
20260509130718 64 124 12.0 15.0 0.00 0.00 0.00 59 1016.2
20260509130618 64 114 13.0 17.0 0.00 0.00 0.00 59 1016.2
20260509130518 64 121 10.0 15.0 0.00 0.00 0.00 58 1016.2
20260509130418 64 130 10.0 14.0 0.00 0.00 0.00 59 1016.2
20260509130318 64 111 10.0 15.0 0.00 0.00 0.00 60 1016.2
20260509130218 64 125 9.0 13.0 0.00 0.00 0.00 60 1016.2
20260509130118 64 140 9.0 12.0 0.00 0.00 0.00 59 1016.2
20260509130018 63 139 10.0 15.0 0.00 0.00 0.00 60 1016.2
20260509125918 64 135 12.0 15.0 0.00 0.00 0.00 59 1016.2
20260509125818 64 128 13.0 20.0 0.00 0.00 0.00 58 1016.3
20260509125717 64 140 9.0 20.0 0.00 0.00 0.00 60 1016.2
20260509125617 64 132 8.0 12.0 0.00 0.00 0.00 59 1016.3
20260509125517 64 149 8.0 12.0 0.00 0.00 0.00 59 1016.2
20260509125417 64 135 9.0 13.0 0.00 0.00 0.00 59 1016.3
20260509125317 64 121 12.0 14.0 0.00 0.00 0.00 58 1016.3
20260509125147 64 137 10.0 14.0 0.00 0.00 0.00 59 1016.2
20260509125047 64 121 12.0 14.0 0.00 0.00 0.00 58 1016.3
20260509124947 64 131 12.0 15.0 0.00 0.00 0.00 58 1016.3
20260509124847 64 114 10.0 14.0 0.00 0.00 0.00 59 1016.3
20260509124747 64 127 10.0 14.0 0.00 0.00 0.00 60 1016.3
20260509124647 64 119 9.0 12.0 0.00 0.00 0.00 59 1016.3
20260509124547 64 124 12.0 14.0 0.00 0.00 0.00 59 1016.3
20260509124447 64 111 9.0 16.0 0.00 0.00 0.00 58 1016.3
20260509124317 64 109 12.0 13.0 0.00 0.00 0.00 57 1016.3
20260509124216 64 111 10.0 14.0 0.00 0.00 0.00 59 1016.3
20260509124116 64 113 9.0 15.0 0.00 0.00 0.00 58 1016.3
20260509124016 64 114 9.0 15.0 0.00 0.00 0.00 57 1016.4
20260509123916 64 117 10.0 12.0 0.00 0.00 0.00 58 1016.4
20260509123816 64 128 9.0 12.0 0.00 0.00 0.00 58 1016.4
20260509123646 64 103 9.0 14.0 0.00 0.00 0.00 57 1016.4
20260509123546 64 113 10.0 16.0 0.00 0.00 0.00 57 1016.4
20260509123446 64 106 12.0 13.0 0.00 0.00 0.00 56 1016.4
20260509123346 64 102 12.0 14.0 0.00 0.00 0.00 56 1016.4
20260509123246 64 96 12.0 15.0 0.00 0.00 0.00 55 1016.4
20260509123146 64 92 12.0 16.0 0.00 0.00 0.00 56 1016.4
20260509123046 64 121 12.0 15.0 0.00 0.00 0.00 55 1016.5
20260509122946 64 112 12.0 16.0 0.00 0.00 0.00 55 1016.5
20260509122846 64 88 12.0 16.0 0.00 0.00 0.00 56 1016.5
20260509122746 64 103 12.0 15.0 0.00 0.00 0.00 55 1016.5
20260509122645 64 109 10.0 14.0 0.00 0.00 0.00 55 1016.5
20260509122545 64 119 10.0 14.0 0.00 0.00 0.00 55 1016.5
20260509122445 64 88 10.0 13.0 0.00 0.00 0.00 56 1016.5
20260509122345 64 98 9.0 14.0 0.00 0.00 0.00 57 1016.6
20260509122245 64 106 9.0 13.0 0.00 0.00 0.00 56 1016.6
20260509122145 64 83 10.0 14.0 0.00 0.00 0.00 56 1016.6
20260509122045 64 80 10.0 16.0 0.00 0.00 0.00 57 1016.5
20260509121945 64 83 9.0 12.0 0.00 0.00 0.00 57 1016.6
20260509121845 64 94 10.0 13.0 0.00 0.00 0.00 57 1016.6
20260509121745 64 102 12.0 16.0 0.00 0.00 0.00 56 1016.6
20260509121645 64 94 13.0 16.0 0.00 0.00 0.00 56 1016.6
20260509121545 64 92 12.0 17.0 0.00 0.00 0.00 56 1016.6
20260509121445 64 91 13.0 14.0 0.00 0.00 0.00 56 1016.6
20260509121344 64 88 12.0 15.0 0.00 0.00 0.00 57 1016.6
20260509121244 64 96 9.0 13.0 0.00 0.00 0.00 58 1016.6
20260509121144 64 89 9.0 13.0 0.00 0.00 0.00 58 1016.7
20260509121048 64 89 12.0 15.0 0.00 0.00 0.00 57 1016.7
20260509120944 64 79 14.0 15.0 0.00 0.00 0.00 56 1016.6
20260509120844 64 80 12.0 17.0 0.00 0.00 0.00 57 1016.7
20260509120744 64 87 8.0 15.0 0.00 0.00 0.00 58 1016.6
20260509120644 64 87 8.0 10.0 0.00 0.00 0.00 58 1016.7
20260509120544 63 84 10.0 14.0 0.00 0.00 0.00 57 1016.7
20260509120414 63 94 12.0 14.0 0.00 0.00 0.00 57 1016.7
20260509120314 63 92 14.0 16.0 0.00 0.00 0.00 57 1016.7
20260509120214 63 88 12.0 17.0 0.00 0.00 0.00 58 1016.7
20260509120114 63 89 12.0 14.0 0.00 0.00 0.00 57 1016.7
20260509120014 63 92 12.0 15.0 0.00 0.00 0.00 57 1016.7
20260509115914 63 82 12.0 20.0 0.00 0.00 0.00 58 1016.7
20260509115814 63 86 12.0 15.0 0.00 0.00 0.00 57 1016.7
20260509115714 63 104 9.0 13.0 0.00 0.00 0.00 59 1016.7
20260509115614 63 92 9.0 13.0 0.00 0.00 0.00 58 1016.7
20260509115514 63 82 10.0 13.0 0.00 0.00 0.00 57 1016.7
20260509115413 63 99 10.0 15.0 0.00 0.00 0.00 59 1016.8
20260509115313 63 93 10.0 12.0 0.00 0.00 0.00 58 1016.8
20260509115213 64 97 12.0 17.0 0.00 0.00 0.00 58 1016.7
20260509115113 64 90 8.0 13.0 0.00 0.00 0.00 58 1016.8
20260509115013 64 98 10.0 14.0 0.00 0.00 0.00 58 1016.7
20260509114913 64 95 9.0 13.0 0.00 0.00 0.00 57 1016.7
20260509114813 64 109 10.0 12.0 0.00 0.00 0.00 58 1016.7
20260509114713 64 117 8.0 15.0 0.00 0.00 0.00 59 1016.7
20260509114613 64 97 9.0 13.0 0.00 0.00 0.00 58 1016.7
20260509114513 63 87 10.0 14.0 0.00 0.00 0.00 59 1016.7
20260509114413 63 89 10.0 16.0 0.00 0.00 0.00 59 1016.7
20260509114313 63 90 13.0 14.0 0.00 0.00 0.00 58 1016.7
20260509114213 64 92 13.0 17.0 0.00 0.00 0.00 57 1016.7
20260509114112 64 104 8.0 16.0 0.00 0.00 0.00 59 1016.7
20260509114012 63 104 8.0 10.0 0.00 0.00 0.00 60 1016.7
20260509113912 63 108 8.0 12.0 0.00 0.00 0.00 60 1016.7
20260509113812 63 102 9.0 12.0 0.00 0.00 0.00 59 1016.7
20260509113712 63 89 12.0 14.0 0.00 0.00 0.00 58 1016.8
20260509113612 63 87 9.0 14.0 0.00 0.00 0.00 59 1016.8
20260509113512 63 86 9.0 13.0 0.00 0.00 0.00 60 1016.8
20260509113412 63 110 10.0 14.0 0.00 0.00 0.00 59 1016.8
20260509113312 64 101 12.0 14.0 0.00 0.00 0.00 58 1016.8
20260509113212 64 107 10.0 16.0 0.00 0.00 0.00 60 1016.8
20260509113112 64 101 8.0 12.0 0.00 0.00 0.00 61 1016.8
20260509113012 63 94 7.0 10.0 0.00 0.00 0.00 61 1016.8
20260509112912 63 76 7.0 10.0 0.00 0.00 0.00 62 1016.8
20260509112812 63 94 9.0 10.0 0.00 0.00 0.00 62 1016.8
20260509112712 63 104 10.0 13.0 0.00 0.00 0.00 61 1016.8
20260509112611 63 99 12.0 14.0 0.00 0.00 0.00 61 1016.8
20260509112511 63 98 12.0 14.0 0.00 0.00 0.00 62 1016.8
20260509112411 63 77 14.0 18.0 0.00 0.00 0.00 61 1016.8
20260509112311 63 86 12.0 18.0 0.00 0.00 0.00 61 1016.9
20260509112211 63 83 9.0 14.0 0.00 0.00 0.00 61 1016.9
20260509112111 63 86 12.0 14.0 0.00 0.00 0.00 61 1016.9
20260509112011 63 100 9.0 15.0 0.00 0.00 0.00 62 1016.9
20260509111911 63 87 10.0 14.0 0.00 0.00 0.00 62 1016.9
20260509111811 63 68 9.0 14.0 0.00 0.00 0.00 64 1016.9
20260509111711 62 79 9.0 12.0 0.00 0.00 0.00 64 1016.9
20260509111611 62 68 10.0 14.0 0.00 0.00 0.00 63 1017.0
20260509111511 62 99 9.0 15.0 0.00 0.00 0.00 62 1016.9
20260509111411 62 93 12.0 14.0 0.00 0.00 0.00 63 1017.0
20260509111311 62 93 12.0 14.0 0.00 0.00 0.00 61 1017.0
20260509111210 62 102 10.0 16.0 0.00 0.00 0.00 62 1017.0
20260509111111 62 97 10.0 15.0 0.00 0.00 0.00 63 1017.0
20260509111012 63 83 10.0 15.0 0.00 0.00 0.00 63 1017.0
20260509110912 62 82 10.0 14.0 0.00 0.00 0.00 63 1017.0
20260509110810 62 100 9.0 13.0 0.00 0.00 0.00 62 1017.0
20260509110710 62 106 8.0 14.0 0.00 0.00 0.00 63 1017.0
20260509110610 62 95 8.0 12.0 0.00 0.00 0.00 64 1017.0
20260509110510 62 91 8.0 10.0 0.00 0.00 0.00 64 1017.0
20260509110410 62 89 9.0 12.0 0.00 0.00 0.00 64 1017.0
20260509110310 62 76 9.0 12.0 0.00 0.00 0.00 64 1017.0
20260509110210 62 73 9.0 12.0 0.00 0.00 0.00 64 1017.0
20260509110110 62 79 8.0 12.0 0.00 0.00 0.00 64 1017.0
20260509110010 62 91 8.0 12.0 0.00 0.00 0.00 64 1017.0
20260509105910 62 78 8.0 12.0 0.00 0.00 0.00 64 1017.1
20260509105810 62 76 10.0 12.0 0.00 0.00 0.00 65 1017.1
20260509105709 62 78 8.0 16.0 0.00 0.00 0.00 65 1017.0
20260509105609 62 75 9.0 14.0 0.00 0.00 0.00 65 1017.1
20260509105509 61 75 9.0 14.0 0.00 0.00 0.00 65 1017.1
20260509105410 61 70 8.0 13.0 0.00 0.00 0.00 65 1017.1
20260509105309 61 86 9.0 12.0 0.00 0.00 0.00 64 1017.1
20260509105209 61 82 9.0 12.0 0.00 0.00 0.00 65 1017.1
20260509105109 61 92 7.0 12.0 0.00 0.00 0.00 66 1017.1
20260509105009 61 77 10.0 10.0 0.00 0.00 0.00 64 1017.1
20260509104909 61 80 12.0 15.0 0.00 0.00 0.00 64 1017.2
20260509104809 61 81 8.0 15.0 0.00 0.00 0.00 65 1017.2
20260509104709 61 88 7.0 10.0 0.00 0.00 0.00 66 1017.2
20260509104608 61 91 8.0 10.0 0.00 0.00 0.00 65 1017.2
20260509104508 61 103 8.0 10.0 0.00 0.00 0.00 66 1017.2